Time,TemperatureF,DewpointF,PressureIn,WindDirection,WindDirectionDegrees,WindSpeedMPH,WindSpeedGustMPH,Humidity,HourlyPrecipIn,Conditions,Clouds,dailyrainin,SoftwareType,DateUTC
2013-02-10 01:05:00,38.0,26.5,30.21,ESE,119,2.0,3.0,63,0.00,,,0.00,Wunderground v.1.15,2013-02-10 06:05:00,
2013-02-10 01:09:00,38.1,26.6,30.21,ESE,120,2.0,3.0,63,0.00,,,0.00,Wunderground v.1.15,2013-02-10 06:09:00,
2013-02-10 01:12:00,38.1,26.6,30.21,ESE,121,1.0,3.0,63,0.00,,,0.00,Wunderground v.1.15,2013-02-10 06:12:00,
2013-02-10 01:17:00,38.2,26.3,30.20,ESE,112,2.0,3.0,62,0.00,,,0.00,Wunderground v.1.15,2013-02-10 06:17:00,
2013-02-10 01:20:00,38.3,26.8,30.21,SSE,150,1.0,2.0,63,0.00,,,0.00,Wunderground v.1.15,2013-02-10 06:20:00,
2013-02-10 01:22:00,38.3,26.8,30.21,ESE,121,1.0,3.0,63,0.00,,,0.00,Wunderground v.1.15,2013-02-10 06:22:00,
2013-02-10 01:26:00,38.3,26.4,30.20,ESE,121,1.0,3.0,62,0.00,,,0.00,Wunderground v.1.15,2013-02-10 06:26:00,
2013-02-10 01:27:00,38.3,26.8,30.20,ESE,113,1.0,2.0,63,0.00,,,0.00,Wunderground v.1.15,2013-02-10 06:27:00,
2013-02-10 01:33:00,38.4,26.9,30.21,ESE,121,1.0,2.0,63,0.00,,,0.00,Wunderground v.1.15,2013-02-10 06:33:00,
2013-02-10 01:37:00,38.4,26.9,30.20,SE,133,1.0,2.0,63,0.00,,,0.00,Wunderground v.1.15,2013-02-10 06:37:00,
2013-02-10 01:39:00,38.4,26.9,30.20,SE,140,1.0,2.0,63,0.00,,,0.00,Wunderground v.1.15,2013-02-10 06:39:00,
2013-02-10 01:42:00,38.4,26.9,30.21,SE,140,1.0,2.0,63,0.00,,,0.00,Wunderground v.1.15,2013-02-10 06:42:00,
2013-02-10 01:45:00,38.4,26.9,30.21,ESE,121,1.0,3.0,63,0.00,,,0.00,Wunderground v.1.15,2013-02-10 06:45:00,
2013-02-10 01:48:00,38.4,26.9,30.21,SE,128,1.0,3.0,63,0.00,,,0.00,Wunderground v.1.15,2013-02-10 06:48:00,
2013-02-10 01:52:00,38.5,27.0,30.21,SE,126,1.0,3.0,63,0.00,,,0.00,Wunderground v.1.15,2013-02-10 06:52:00,
2013-02-10 01:54:00,38.5,27.0,30.21,SE,126,1.0,3.0,63,0.00,,,0.00,Wunderground v.1.15,2013-02-10 06:54:00,
2013-02-10 01:59:00,38.6,27.1,30.21,SE,126,1.0,1.0,63,0.00,,,0.00,Wunderground v.1.15,2013-02-10 06:59:00,
2013-02-10 02:01:00,38.6,27.1,30.21,SE,124,1.0,1.0,63,0.00,,,0.00,Wunderground v.1.15,2013-02-10 07:01:00,
2013-02-10 02:04:00,38.6,27.1,30.20,SE,125,1.0,2.0,63,0.00,,,0.00,Wunderground v.1.15,2013-02-10 07:04:00,
2013-02-10 02:08:00,38.6,27.1,30.20,SE,125,1.0,1.0,63,0.00,,,0.00,Wunderground v.1.15,2013-02-10 07:08:00,
2013-02-10 02:09:00,38.6,27.1,30.20,SE,125,1.0,1.0,63,0.00,,,0.00,Wunderground v.1.15,2013-02-10 07:09:00,
2013-02-10 02:13:00,38.6,27.1,30.19,East,92,1.0,3.0,63,0.00,,,0.00,Wunderground v.1.15,2013-02-10 07:13:00,
2013-02-10 02:15:00,38.6,27.5,30.20,East,92,1.0,3.0,64,0.00,,,0.00,Wunderground v.1.15,2013-02-10 07:15:00,
2013-02-10 02:16:00,38.6,27.5,30.20,East,92,1.0,3.0,64,0.00,,,0.00,Wunderground v.1.15,2013-02-10 07:16:00,
2013-02-10 02:19:00,38.6,26.7,30.20,ESE,109,1.0,2.0,62,0.00,,,0.00,Wunderground v.1.15,2013-02-10 07:19:00,
2013-02-10 02:22:00,38.6,26.7,30.20,ESE,105,1.0,2.0,62,0.00,,,0.00,Wunderground v.1.15,2013-02-10 07:22:00,
2013-02-10 02:23:00,38.7,26.8,30.20,ESE,105,1.0,2.0,62,0.00,,,0.00,Wunderground v.1.15,2013-02-10 07:23:00,
2013-02-10 02:24:00,38.7,26.8,30.19,ESE,105,1.0,2.0,62,0.00,,,0.00,Wunderground v.1.15,2013-02-10 07:24:00,
2013-02-10 02:30:00,38.9,27.4,30.20,ESE,105,1.0,1.0,63,0.00,,,0.00,Wunderground v.1.15,2013-02-10 07:30:00,
2013-02-10 02:31:00,38.9,27.0,30.20,ESE,105,0.0,1.0,62,0.00,,,0.00,Wunderground v.1.15,2013-02-10 07:31:00,
2013-02-10 02:32:00,38.9,27.0,30.20,ESE,105,0.0,1.0,62,0.00,,,0.00,Wunderground v.1.15,2013-02-10 07:32:00,
2013-02-10 02:33:00,38.9,27.0,30.20,ESE,105,0.0,1.0,62,0.00,,,0.00,Wunderground v.1.15,2013-02-10 07:33:00,
2013-02-10 02:37:00,38.9,27.0,30.20,ESE,105,0.0,1.0,62,0.00,,,0.00,Wunderground v.1.15,2013-02-10 07:37:00,
2013-02-10 02:39:00,38.9,26.6,30.20,ESE,105,0.0,1.0,61,0.00,,,0.00,Wunderground v.1.15,2013-02-10 07:39:00,
2013-02-10 02:40:00,38.9,27.0,30.20,ESE,105,0.0,2.0,62,0.00,,,0.00,Wunderground v.1.15,2013-02-10 07:40:00,
2013-02-10 02:43:00,38.9,27.0,30.19,ESE,116,1.0,3.0,62,0.00,,,0.00,Wunderground v.1.15,2013-02-10 07:43:00,
2013-02-10 02:44:00,38.9,26.6,30.19,ESE,122,1.0,3.0,61,0.00,,,0.00,Wunderground v.1.15,2013-02-10 07:44:00,
2013-02-10 02:45:00,39.0,27.1,30.19,ESE,122,1.0,3.0,62,0.00,,,0.00,Wunderground v.1.15,2013-02-10 07:45:00,
2013-02-10 02:46:00,39.0,27.1,30.19,ESE,122,1.0,3.0,62,0.00,,,0.00,Wunderground v.1.15,2013-02-10 07:46:00,
2013-02-10 02:51:00,39.1,27.6,30.19,ESE,115,2.0,2.0,63,0.00,,,0.00,Wunderground v.1.15,2013-02-10 07:51:00,
2013-02-10 02:52:00,39.1,27.6,30.19,ESE,115,2.0,2.0,63,0.00,,,0.00,Wunderground v.1.15,2013-02-10 07:52:00,
2013-02-10 02:54:00,39.1,27.2,30.19,ESE,115,2.0,2.0,62,0.00,,,0.00,Wunderground v.1.15,2013-02-10 07:54:00,
2013-02-10 02:56:00,39.0,27.1,30.19,SE,128,1.0,2.0,62,0.00,,,0.00,Wunderground v.1.15,2013-02-10 07:56:00,
2013-02-10 02:59:00,39.1,27.2,30.19,SE,128,1.0,2.0,62,0.00,,,0.00,Wunderground v.1.15,2013-02-10 07:59:00,
2013-02-10 03:00:00,39.1,27.2,30.19,SE,128,1.0,2.0,62,0.00,,,0.00,Wunderground v.1.15,2013-02-10 08:00:00,
2013-02-10 03:05:00,39.1,27.2,30.19,SE,128,1.0,2.0,62,0.00,,,0.00,Wunderground v.1.15,2013-02-10 08:05:00,
2013-02-10 03:06:00,39.1,27.2,30.19,SE,128,1.0,2.0,62,0.00,,,0.00,Wunderground v.1.15,2013-02-10 08:06:00,
2013-02-10 03:08:00,39.1,27.2,30.19,SE,128,1.0,1.0,62,0.00,,,0.00,Wunderground v.1.15,2013-02-10 08:08:00,
2013-02-10 03:09:00,39.1,27.6,30.19,SE,128,1.0,2.0,63,0.00,,,0.00,Wunderground v.1.15,2013-02-10 08:09:00,
2013-02-10 03:14:00,39.1,27.2,30.18,SE,128,1.0,2.0,62,0.00,,,0.00,Wunderground v.1.15,2013-02-10 08:14:00,
2013-02-10 03:15:00,39.1,27.2,30.18,SE,128,1.0,2.0,62,0.00,,,0.00,Wunderground v.1.15,2013-02-10 08:15:00,
2013-02-10 03:16:00,39.1,27.2,30.18,SE,128,1.0,2.0,62,0.00,,,0.00,Wunderground v.1.15,2013-02-10 08:16:00,
2013-02-10 03:21:00,39.1,27.6,30.18,ESE,115,1.0,2.0,63,0.00,,,0.00,Wunderground v.1.15,2013-02-10 08:21:00,
2013-02-10 03:22:00,39.1,27.2,30.18,ESE,115,1.0,2.0,62,0.00,,,0.00,Wunderground v.1.15,2013-02-10 08:22:00,
2013-02-10 03:25:00,39.1,27.2,30.18,ESE,115,1.0,2.0,62,0.00,,,0.00,Wunderground v.1.15,2013-02-10 08:25:00,
2013-02-10 03:28:00,39.1,27.2,30.18,ESE,115,0.0,0.0,62,0.00,,,0.00,Wunderground v.1.15,2013-02-10 08:28:00,
2013-02-10 03:30:00,39.1,27.2,30.18,ESE,115,0.0,0.0,62,0.00,,,0.00,Wunderground v.1.15,2013-02-10 08:30:00,
2013-02-10 03:33:00,39.1,27.2,30.18,ESE,115,0.0,0.0,62,0.00,,,0.00,Wunderground v.1.15,2013-02-10 08:33:00,
2013-02-10 03:35:00,39.1,27.2,30.18,ESE,115,0.0,0.0,62,0.00,,,0.00,Wunderground v.1.15,2013-02-10 08:35:00,
2013-02-10 03:37:00,39.1,27.2,30.18,ESE,115,0.0,1.0,62,0.00,,,0.00,Wunderground v.1.15,2013-02-10 08:37:00,
2013-02-10 03:39:00,39.1,27.2,30.18,ESE,115,0.0,0.0,62,0.00,,,0.00,Wunderground v.1.15,2013-02-10 08:39:00,
2013-02-10 03:41:00,39.1,27.2,30.18,ESE,115,0.0,0.0,62,0.00,,,0.00,Wunderground v.1.15,2013-02-10 08:41:00,
2013-02-10 03:42:00,39.1,27.2,30.18,ESE,115,0.0,0.0,62,0.00,,,0.00,Wunderground v.1.15,2013-02-10 08:42:00,
2013-02-10 03:47:00,39.1,27.6,30.17,ESE,115,1.0,2.0,63,0.00,,,0.00,Wunderground v.1.15,2013-02-10 08:47:00,
2013-02-10 03:49:00,39.0,27.8,30.17,ESE,115,1.0,2.0,64,0.00,,,0.00,Wunderground v.1.15,2013-02-10 08:49:00,
2013-02-10 03:50:00,39.0,27.8,30.17,ESE,115,1.0,2.0,64,0.00,,,0.00,Wunderground v.1.15,2013-02-10 08:50:00,
2013-02-10 03:53:00,38.9,27.8,30.17,ESE,115,1.0,2.0,64,0.00,,,0.00,Wunderground v.1.15,2013-02-10 08:53:00,
2013-02-10 03:55:00,38.9,27.8,30.17,ESE,115,1.0,2.0,64,0.00,,,0.00,Wunderground v.1.15,2013-02-10 08:55:00,
2013-02-10 03:56:00,38.9,28.1,30.17,ESE,115,1.0,2.0,65,0.00,,,0.00,Wunderground v.1.15,2013-02-10 08:56:00,
2013-02-10 03:58:00,38.9,27.8,30.17,ESE,115,1.0,1.0,64,0.00,,,0.00,Wunderground v.1.15,2013-02-10 08:58:00,
2013-02-10 04:01:00,38.8,27.7,30.17,ESE,115,0.0,1.0,64,0.00,,,0.00,Wunderground v.1.15,2013-02-10 09:01:00,
2013-02-10 04:03:00,38.8,27.3,30.17,ESE,115,0.0,1.0,63,0.00,,,0.00,Wunderground v.1.15,2013-02-10 09:03:00,
2013-02-10 04:04:00,38.8,27.3,30.17,ESE,115,0.0,1.0,63,0.00,,,0.00,Wunderground v.1.15,2013-02-10 09:04:00,
2013-02-10 04:05:00,38.8,27.3,30.17,ESE,115,0.0,1.0,63,0.00,,,0.00,Wunderground v.1.15,2013-02-10 09:05:00,
2013-02-10 04:07:00,38.8,26.9,30.17,ESE,115,0.0,1.0,62,0.00,,,0.00,Wunderground v.1.15,2013-02-10 09:07:00,
2013-02-10 04:08:00,38.7,26.8,30.17,ESE,115,0.0,0.0,62,0.00,,,0.00,Wunderground v.1.15,2013-02-10 09:08:00,
2013-02-10 04:10:00,38.7,26.8,30.17,ESE,115,0.0,0.0,62,0.00,,,0.00,Wunderground v.1.15,2013-02-10 09:10:00,
2013-02-10 04:12:00,38.7,26.8,30.17,ESE,115,0.0,0.0,62,0.00,,,0.00,Wunderground v.1.15,2013-02-10 09:12:00,
2013-02-10 04:13:00,38.7,26.8,30.17,ESE,115,0.0,0.0,62,0.00,,,0.00,Wunderground v.1.15,2013-02-10 09:13:00,
2013-02-10 04:14:00,38.7,26.8,30.17,ESE,115,0.0,0.0,62,0.00,,,0.00,Wunderground v.1.15,2013-02-10 09:14:00,
2013-02-10 04:16:00,38.7,26.8,30.17,ESE,115,0.0,1.0,62,0.00,,,0.00,Wunderground v.1.15,2013-02-10 09:16:00,
2013-02-10 04:19:00,38.8,27.3,30.17,ESE,115,0.0,1.0,63,0.00,,,0.00,Wunderground v.1.15,2013-02-10 09:19:00,
2013-02-10 04:22:00,38.8,27.3,30.17,ESE,115,0.0,1.0,63,0.00,,,0.00,Wunderground v.1.15,2013-02-10 09:22:00,
2013-02-10 04:26:00,38.9,27.4,30.17,ESE,115,0.0,1.0,63,0.00,,,0.00,Wunderground v.1.15,2013-02-10 09:26:00,
2013-02-10 04:27:00,38.8,27.3,30.17,ESE,115,0.0,1.0,63,0.00,,,0.00,Wunderground v.1.15,2013-02-10 09:27:00,
2013-02-10 04:32:00,38.8,27.3,30.17,ESE,115,0.0,1.0,63,0.00,,,0.00,Wunderground v.1.15,2013-02-10 09:32:00,
2013-02-10 04:33:00,38.9,27.8,30.17,ESE,115,0.0,1.0,64,0.00,,,0.00,Wunderground v.1.15,2013-02-10 09:33:00,
2013-02-10 04:34:00,38.8,27.3,30.17,ESE,115,1.0,1.0,63,0.00,,,0.00,Wunderground v.1.15,2013-02-10 09:34:00,
2013-02-10 04:35:00,38.9,27.4,30.17,ESE,115,1.0,1.0,63,0.00,,,0.00,Wunderground v.1.15,2013-02-10 09:35:00,
2013-02-10 04:40:00,38.8,27.3,30.17,ESE,115,0.0,1.0,63,0.00,,,0.00,Wunderground v.1.15,2013-02-10 09:40:00,
2013-02-10 04:42:00,38.9,27.8,30.17,ESE,115,0.0,1.0,64,0.00,,,0.00,Wunderground v.1.15,2013-02-10 09:42:00,
2013-02-10 04:46:00,38.9,27.8,30.17,ESE,115,0.0,1.0,64,0.00,,,0.00,Wunderground v.1.15,2013-02-10 09:46:00,
2013-02-10 04:47:00,38.9,27.8,30.17,ESE,115,0.0,1.0,64,0.00,,,0.00,Wunderground v.1.15,2013-02-10 09:47:00,
2013-02-10 04:49:00,38.9,27.8,30.17,ESE,115,0.0,1.0,64,0.00,,,0.00,Wunderground v.1.15,2013-02-10 09:49:00,
2013-02-10 04:52:00,38.9,27.4,30.17,ESE,115,0.0,1.0,63,0.00,,,0.00,Wunderground v.1.15,2013-02-10 09:52:00,
2013-02-10 04:54:00,39.0,27.5,30.17,ESE,115,0.0,1.0,63,0.00,,,0.00,Wunderground v.1.15,2013-02-10 09:54:00,
2013-02-10 04:55:00,39.0,27.5,30.17,ESE,115,0.0,1.0,63,0.00,,,0.00,Wunderground v.1.15,2013-02-10 09:55:00,
2013-02-10 04:58:00,39.1,27.6,30.17,ESE,115,0.0,0.0,63,0.00,,,0.00,Wunderground v.1.15,2013-02-10 09:58:00,
2013-02-10 05:02:00,39.2,27.7,30.17,ESE,115,0.0,2.0,63,0.00,,,0.00,Wunderground v.1.15,2013-02-10 10:02:00,
2013-02-10 05:04:00,39.3,27.7,30.17,ESE,115,0.0,2.0,63,0.00,,,0.00,Wunderground v.1.15,2013-02-10 10:04:00,
2013-02-10 05:08:00,39.4,28.2,30.17,ESE,121,1.0,1.0,64,0.00,,,0.00,Wunderground v.1.15,2013-02-10 10:08:00,
2013-02-10 05:09:00,39.4,28.6,30.17,ESE,121,1.0,1.0,65,0.00,,,0.00,Wunderground v.1.15,2013-02-10 10:09:00,
2013-02-10 05:10:00,39.5,28.3,30.17,ESE,121,1.0,1.0,64,0.00,,,0.00,Wunderground v.1.15,2013-02-10 10:10:00,
2013-02-10 05:13:00,39.5,28.7,30.17,ESE,121,1.0,2.0,65,0.00,,,0.00,Wunderground v.1.15,2013-02-10 10:13:00,
2013-02-10 05:15:00,39.6,28.4,30.17,ESE,121,1.0,2.0,64,0.00,,,0.00,Wunderground v.1.15,2013-02-10 10:15:00,
2013-02-10 05:16:00,39.6,28.4,30.17,ESE,121,1.0,2.0,64,0.00,,,0.00,Wunderground v.1.15,2013-02-10 10:16:00,
2013-02-10 05:18:00,39.6,28.4,30.17,ESE,121,1.0,2.0,64,0.00,,,0.00,Wunderground v.1.15,2013-02-10 10:18:00,
2013-02-10 05:20:00,39.7,28.5,30.17,SE,124,1.0,2.0,64,0.00,,,0.00,Wunderground v.1.15,2013-02-10 10:20:00,
2013-02-10 05:21:00,39.7,28.5,30.17,SE,124,2.0,2.0,64,0.00,,,0.00,Wunderground v.1.15,2013-02-10 10:21:00,
2013-02-10 05:22:00,39.7,28.5,30.17,SE,124,2.0,2.0,64,0.00,,,0.00,Wunderground v.1.15,2013-02-10 10:22:00,
2013-02-10 05:25:00,39.8,28.6,30.17,SE,132,2.0,2.0,64,0.00,,,0.00,Wunderground v.1.15,2013-02-10 10:25:00,
2013-02-10 05:28:00,40.0,28.8,30.17,SE,132,2.0,2.0,64,0.00,,,0.00,Wunderground v.1.15,2013-02-10 10:28:00,
2013-02-10 05:29:00,40.0,28.4,30.17,SE,132,2.0,2.0,63,0.00,,,0.00,Wunderground v.1.15,2013-02-10 10:29:00,
2013-02-10 05:31:00,40.1,28.9,30.17,SE,126,2.0,2.0,64,0.00,,,0.00,Wunderground v.1.15,2013-02-10 10:31:00,
2013-02-10 05:33:00,40.2,29.0,30.17,SE,126,2.0,2.0,64,0.00,,,0.00,Wunderground v.1.15,2013-02-10 10:33:00,
2013-02-10 05:36:00,40.3,29.1,30.17,SE,129,2.0,3.0,64,0.00,,,0.00,Wunderground v.1.15,2013-02-10 10:36:00,
2013-02-10 05:37:00,40.3,29.1,30.17,SE,129,2.0,3.0,64,0.00,,,0.00,Wunderground v.1.15,2013-02-10 10:37:00,
2013-02-10 05:39:00,40.4,29.6,30.17,SE,129,2.0,2.0,65,0.00,,,0.00,Wunderground v.1.15,2013-02-10 10:39:00,
2013-02-10 05:42:00,40.4,29.2,30.17,SE,129,1.0,2.0,64,0.00,,,0.00,Wunderground v.1.15,2013-02-10 10:42:00,
2013-02-10 05:46:00,40.5,29.7,30.17,SE,129,1.0,2.0,65,0.00,,,0.00,Wunderground v.1.15,2013-02-10 10:46:00,
2013-02-10 05:47:00,40.5,29.7,30.17,SSW,195,1.0,2.0,65,0.00,,,0.00,Wunderground v.1.15,2013-02-10 10:47:00,
2013-02-10 05:48:00,40.6,30.1,30.17,SSW,195,1.0,2.0,66,0.00,,,0.00,Wunderground v.1.15,2013-02-10 10:48:00,
2013-02-10 05:52:00,40.7,30.6,30.18,SSE,159,1.0,3.0,67,0.00,,,0.00,Wunderground v.1.15,2013-02-10 10:52:00,
2013-02-10 05:53:00,40.8,31.1,30.18,South,178,1.0,3.0,68,0.00,,,0.00,Wunderground v.1.15,2013-02-10 10:53:00,
2013-02-10 05:54:00,40.9,31.1,30.18,SSE,161,2.0,3.0,68,0.00,,,0.00,Wunderground v.1.15,2013-02-10 10:54:00,
2013-02-10 05:55:00,41.0,31.6,30.18,SSE,165,2.0,3.0,69,0.00,,,0.00,Wunderground v.1.15,2013-02-10 10:55:00,
2013-02-10 05:58:00,41.3,32.2,30.18,SSE,148,2.0,4.0,70,0.00,,,0.00,Wunderground v.1.15,2013-02-10 10:58:00,
2013-02-10 06:01:00,41.5,32.4,30.17,South,169,2.0,4.0,70,0.00,,,0.00,Wunderground v.1.15,2013-02-10 11:01:00,
2013-02-10 06:02:00,41.6,32.9,30.17,SSE,159,3.0,4.0,71,0.00,,,0.00,Wunderground v.1.15,2013-02-10 11:02:00,
2013-02-10 06:05:00,41.8,33.1,30.17,South,178,2.0,4.0,71,0.00,,,0.00,Wunderground v.1.15,2013-02-10 11:05:00,
2013-02-10 06:08:00,42.0,33.6,30.17,SSE,151,2.0,4.0,72,0.00,,,0.00,Wunderground v.1.15,2013-02-10 11:08:00,
2013-02-10 06:10:00,42.1,34.1,30.17,SSE,150,2.0,4.0,73,0.00,,,0.00,Wunderground v.1.15,2013-02-10 11:10:00,
2013-02-10 06:13:00,42.2,34.5,30.17,SSE,155,2.0,4.0,74,0.00,,,0.00,Wunderground v.1.15,2013-02-10 11:13:00,
2013-02-10 06:15:00,42.3,34.6,30.17,SSE,155,2.0,4.0,74,0.00,,,0.00,Wunderground v.1.15,2013-02-10 11:15:00,
2013-02-10 06:18:00,42.3,34.9,30.17,South,174,2.0,2.0,75,0.00,,,0.00,Wunderground v.1.15,2013-02-10 11:18:00,
2013-02-10 06:19:00,42.4,35.0,30.17,SSE,156,2.0,2.0,75,0.00,,,0.00,Wunderground v.1.15,2013-02-10 11:19:00,
2013-02-10 06:20:00,42.4,35.0,30.17,SSE,156,2.0,2.0,75,0.00,,,0.00,Wunderground v.1.15,2013-02-10 11:20:00,
2013-02-10 06:24:00,42.6,35.9,30.17,SSE,164,2.0,2.0,77,0.00,,,0.00,Wunderground v.1.15,2013-02-10 11:24:00,
2013-02-10 06:26:00,42.6,35.9,30.17,South,185,2.0,2.0,77,0.00,,,0.00,Wunderground v.1.15,2013-02-10 11:26:00,
2013-02-10 06:27:00,42.7,36.0,30.17,South,185,2.0,2.0,77,0.00,,,0.00,Wunderground v.1.15,2013-02-10 11:27:00,
2013-02-10 06:29:00,42.7,36.3,30.17,South,173,2.0,3.0,78,0.00,,,0.00,Wunderground v.1.15,2013-02-10 11:29:00,
2013-02-10 06:32:00,42.7,36.6,30.17,SSE,148,2.0,3.0,79,0.00,,,0.00,Wunderground v.1.15,2013-02-10 11:32:00,
2013-02-10 06:34:00,42.7,36.6,30.17,South,188,2.0,3.0,79,0.00,,,0.00,Wunderground v.1.15,2013-02-10 11:34:00,
2013-02-10 06:35:00,42.7,37.0,30.17,SSE,149,2.0,3.0,80,0.00,,,0.00,Wunderground v.1.15,2013-02-10 11:35:00,
2013-02-10 06:37:00,42.7,37.0,30.17,South,171,2.0,3.0,80,0.00,,,0.00,Wunderground v.1.15,2013-02-10 11:37:00,
2013-02-10 06:38:00,42.7,37.3,30.17,SSE,153,2.0,2.0,81,0.00,,,0.00,Wunderground v.1.15,2013-02-10 11:38:00,
2013-02-10 06:40:00,42.7,37.3,30.17,SSE,150,2.0,2.0,81,0.00,,,0.00,Wunderground v.1.15,2013-02-10 11:40:00,
2013-02-10 06:41:00,42.7,37.3,30.17,SSE,149,2.0,2.0,81,0.00,,,0.00,Wunderground v.1.15,2013-02-10 11:41:00,
2013-02-10 06:44:00,42.7,37.6,30.17,SSE,148,2.0,2.0,82,0.00,,,0.01,Wunderground v.1.15,2013-02-10 11:44:00,
2013-02-10 06:46:00,42.7,37.6,30.17,SSE,148,2.0,2.0,82,0.00,,,0.01,Wunderground v.1.15,2013-02-10 11:46:00,
2013-02-10 06:52:00,42.6,37.8,30.17,SSE,159,2.0,3.0,83,0.00,,,0.01,Wunderground v.1.15,2013-02-10 11:52:00,
2013-02-10 06:53:00,42.6,37.8,30.17,SE,144,2.0,3.0,83,0.00,,,0.01,Wunderground v.1.15,2013-02-10 11:53:00,
2013-02-10 06:58:00,42.5,38.0,30.17,SSE,156,2.0,2.0,84,0.05,,,0.02,Wunderground v.1.15,2013-02-10 11:58:00,
2013-02-10 07:00:00,42.4,37.9,30.17,SE,146,2.0,2.0,84,0.05,,,0.02,Wunderground v.1.15,2013-02-10 12:00:00,
2013-02-10 07:02:00,42.4,38.2,30.17,SE,146,2.0,2.0,85,0.05,,,0.02,Wunderground v.1.15,2013-02-10 12:02:00,
2013-02-10 07:03:00,42.4,38.2,30.17,South,171,2.0,3.0,85,0.05,,,0.02,Wunderground v.1.15,2013-02-10 12:03:00,
2013-02-10 07:07:00,42.3,38.1,30.16,SE,144,2.0,3.0,85,0.05,,,0.02,Wunderground v.1.15,2013-02-10 12:07:00,
2013-02-10 07:10:00,42.3,38.4,30.16,SE,144,2.0,2.0,86,0.04,,,0.02,Wunderground v.1.15,2013-02-10 12:10:00,
2013-02-10 07:12:00,42.2,38.3,30.17,SE,144,1.0,2.0,86,0.00,,,0.02,Wunderground v.1.15,2013-02-10 12:12:00,
2013-02-10 07:13:00,42.2,38.3,30.17,SE,144,1.0,2.0,86,0.00,,,0.02,Wunderground v.1.15,2013-02-10 12:13:00,
2013-02-10 07:14:00,42.2,38.3,30.17,SE,144,1.0,2.0,86,0.00,,,0.02,Wunderground v.1.15,2013-02-10 12:14:00,
2013-02-10 07:17:00,42.2,38.6,30.16,SE,144,0.0,2.0,87,0.00,,,0.02,Wunderground v.1.15,2013-02-10 12:17:00,
2013-02-10 07:18:00,42.1,38.5,30.16,SE,144,0.0,2.0,87,0.00,,,0.02,Wunderground v.1.15,2013-02-10 12:18:00,
2013-02-10 07:21:00,42.1,38.5,30.17,SE,144,1.0,2.0,87,0.00,,,0.02,Wunderground v.1.15,2013-02-10 12:21:00,
2013-02-10 07:23:00,42.0,38.4,30.16,SE,144,1.0,2.0,87,0.00,,,0.02,Wunderground v.1.15,2013-02-10 12:23:00,
2013-02-10 07:26:00,42.0,38.7,30.16,SE,142,1.0,2.0,88,0.00,,,0.03,Wunderground v.1.15,2013-02-10 12:26:00,
2013-02-10 07:30:00,42.0,38.7,30.16,SE,142,1.0,2.0,88,0.00,,,0.03,Wunderground v.1.15,2013-02-10 12:30:00,
2013-02-10 07:34:00,41.9,38.6,30.15,SE,142,1.0,2.0,88,0.00,,,0.03,Wunderground v.1.15,2013-02-10 12:34:00,
2013-02-10 07:37:00,41.9,38.6,30.15,SE,142,1.0,2.0,88,0.00,,,0.03,Wunderground v.1.15,2013-02-10 12:37:00,
2013-02-10 07:39:00,41.8,38.8,30.15,SE,142,1.0,1.0,89,0.00,,,0.03,Wunderground v.1.15,2013-02-10 12:39:00,
2013-02-10 07:41:00,41.7,38.7,30.15,SE,136,1.0,1.0,89,0.00,,,0.03,Wunderground v.1.15,2013-02-10 12:41:00,
2013-02-10 07:43:00,41.7,38.7,30.15,SE,134,1.0,2.0,89,0.00,,,0.03,Wunderground v.1.15,2013-02-10 12:43:00,
2013-02-10 07:44:00,41.6,38.6,30.15,SE,134,1.0,2.0,89,0.00,,,0.03,Wunderground v.1.15,2013-02-10 12:44:00,
2013-02-10 07:47:00,41.5,38.5,30.14,SE,127,1.0,2.0,89,0.00,,,0.03,Wunderground v.1.15,2013-02-10 12:47:00,
2013-02-10 07:48:00,41.5,38.5,30.14,SE,127,1.0,1.0,89,0.00,,,0.03,Wunderground v.1.15,2013-02-10 12:48:00,
2013-02-10 07:50:00,41.5,38.5,30.14,SE,127,1.0,2.0,89,0.00,,,0.03,Wunderground v.1.15,2013-02-10 12:50:00,
2013-02-10 07:52:00,41.4,38.7,30.14,SE,127,1.0,2.0,90,0.00,,,0.03,Wunderground v.1.15,2013-02-10 12:52:00,
2013-02-10 07:55:00,41.4,38.4,30.14,ESE,117,1.0,2.0,89,0.00,,,0.03,Wunderground v.1.15,2013-02-10 12:55:00,
2013-02-10 07:58:00,41.3,38.3,30.13,ESE,117,1.0,1.0,89,0.00,,,0.03,Wunderground v.1.15,2013-02-10 12:58:00,
2013-02-10 08:01:00,41.3,38.3,30.13,ESE,117,1.0,2.0,89,0.00,,,0.03,Wunderground v.1.15,2013-02-10 13:01:00,
2013-02-10 08:02:00,41.3,38.3,30.13,ESE,115,1.0,3.0,89,0.00,,,0.03,Wunderground v.1.15,2013-02-10 13:02:00,
2013-02-10 08:03:00,41.3,38.3,30.13,ESE,115,1.0,3.0,89,0.00,,,0.03,Wunderground v.1.15,2013-02-10 13:03:00,
2013-02-10 08:06:00,41.3,38.3,30.13,ESE,115,1.0,3.0,89,0.00,,,0.03,Wunderground v.1.15,2013-02-10 13:06:00,
2013-02-10 08:10:00,41.3,38.3,30.13,SE,136,2.0,2.0,89,0.00,,,0.03,Wunderground v.1.15,2013-02-10 13:10:00,
2013-02-10 08:12:00,41.3,38.3,30.13,SE,127,2.0,2.0,89,0.00,,,0.03,Wunderground v.1.15,2013-02-10 13:12:00,
2013-02-10 08:16:00,41.4,38.4,30.13,SE,130,2.0,3.0,89,0.00,,,0.03,Wunderground v.1.15,2013-02-10 13:16:00,
2013-02-10 08:17:00,41.4,38.4,30.12,SE,139,2.0,3.0,89,0.00,,,0.03,Wunderground v.1.15,2013-02-10 13:17:00,
2013-02-10 08:20:00,41.5,38.5,30.12,SE,140,3.0,4.0,89,0.00,,,0.03,Wunderground v.1.15,2013-02-10 13:20:00,
2013-02-10 08:21:00,41.6,38.3,30.12,SE,132,3.0,4.0,88,0.00,,,0.03,Wunderground v.1.15,2013-02-10 13:21:00,
2013-02-10 08:23:00,41.7,38.4,30.12,SE,140,3.0,4.0,88,0.00,,,0.03,Wunderground v.1.15,2013-02-10 13:23:00,
2013-02-10 08:27:00,41.8,38.5,30.12,South,179,3.0,4.0,88,0.00,,,0.03,Wunderground v.1.15,2013-02-10 13:27:00,
2013-02-10 08:28:00,41.9,38.6,30.13,SSE,161,3.0,3.0,88,0.00,,,0.03,Wunderground v.1.15,2013-02-10 13:28:00,
2013-02-10 08:29:00,41.9,38.6,30.13,SSE,164,3.0,3.0,88,0.00,,,0.03,Wunderground v.1.15,2013-02-10 13:29:00,
2013-02-10 08:34:00,42.2,38.6,30.13,SE,126,2.0,3.0,87,0.00,,,0.03,Wunderground v.1.15,2013-02-10 13:34:00,
2013-02-10 08:36:00,42.2,38.3,30.13,SE,138,2.0,3.0,86,0.00,,,0.03,Wunderground v.1.15,2013-02-10 13:36:00,
2013-02-10 08:41:00,42.4,38.5,30.14,SSE,150,2.0,3.0,86,0.00,,,0.03,Wunderground v.1.15,2013-02-10 13:41:00,
2013-02-10 08:43:00,42.5,38.6,30.14,SE,139,2.0,3.0,86,0.00,,,0.03,Wunderground v.1.15,2013-02-10 13:43:00,
2013-02-10 08:44:00,42.5,38.6,30.14,SE,139,2.0,3.0,86,0.00,,,0.03,Wunderground v.1.15,2013-02-10 13:44:00,
2013-02-10 08:47:00,42.7,38.5,30.14,SE,137,2.0,6.0,85,0.00,,,0.03,Wunderground v.1.15,2013-02-10 13:47:00,
2013-02-10 08:48:00,42.7,38.5,30.13,SE,139,2.0,2.0,85,0.00,,,0.03,Wunderground v.1.15,2013-02-10 13:48:00,
2013-02-10 08:51:00,42.9,38.7,30.13,SE,139,2.0,3.0,85,0.00,,,0.03,Wunderground v.1.15,2013-02-10 13:51:00,
2013-02-10 08:53:00,42.9,38.4,30.13,SE,138,2.0,3.0,84,0.00,,,0.03,Wunderground v.1.15,2013-02-10 13:53:00,
2013-02-10 08:55:00,43.0,38.5,30.13,SSE,150,2.0,3.0,84,0.00,,,0.03,Wunderground v.1.15,2013-02-10 13:55:00,
2013-02-10 08:57:00,43.1,38.6,30.13,SE,132,2.0,3.0,84,0.00,,,0.03,Wunderground v.1.15,2013-02-10 13:57:00,
2013-02-10 08:58:00,43.1,38.6,30.13,SE,132,2.0,2.0,84,0.00,,,0.03,Wunderground v.1.15,2013-02-10 13:58:00,
2013-02-10 09:00:00,43.2,38.7,30.13,SE,143,2.0,3.0,84,0.00,,,0.03,Wunderground v.1.15,2013-02-10 14:00:00,
2013-02-10 09:02:00,43.3,38.5,30.13,ESE,123,2.0,4.0,83,0.00,,,0.03,Wunderground v.1.15,2013-02-10 14:02:00,
2013-02-10 09:03:00,43.3,38.5,30.12,SSE,153,2.0,4.0,83,0.00,,,0.03,Wunderground v.1.15,2013-02-10 14:03:00,
2013-02-10 09:04:00,43.4,38.6,30.12,SSE,147,2.0,4.0,83,0.00,,,0.03,Wunderground v.1.15,2013-02-10 14:04:00,
2013-02-10 09:06:00,43.6,38.5,30.12,SE,142,2.0,5.0,82,0.00,,,0.03,Wunderground v.1.15,2013-02-10 14:06:00,
2013-02-10 09:09:00,43.7,38.6,30.12,SE,146,3.0,3.0,82,0.00,,,0.03,Wunderground v.1.15,2013-02-10 14:09:00,
2013-02-10 09:11:00,43.9,38.8,30.12,SE,127,3.0,4.0,82,0.00,,,0.03,Wunderground v.1.15,2013-02-10 14:11:00,
2013-02-10 09:13:00,44.0,38.2,30.12,SE,144,3.0,5.0,80,0.00,,,0.03,Wunderground v.1.15,2013-02-10 14:13:00,
2013-02-10 09:14:00,44.0,38.2,30.12,ESE,120,3.0,5.0,80,0.00,,,0.03,Wunderground v.1.15,2013-02-10 14:14:00,
2013-02-10 09:16:00,44.2,38.1,30.12,SE,138,3.0,5.0,79,0.00,,,0.03,Wunderground v.1.15,2013-02-10 14:16:00,
2013-02-10 09:19:00,44.4,38.3,30.12,SSE,155,3.0,6.0,79,0.00,,,0.03,Wunderground v.1.15,2013-02-10 14:19:00,
2013-02-10 09:21:00,44.5,38.4,30.12,SSE,153,3.0,6.0,79,0.00,,,0.03,Wunderground v.1.15,2013-02-10 14:21:00,
2013-02-10 09:22:00,44.5,38.4,30.13,SSE,153,3.0,6.0,79,0.00,,,0.03,Wunderground v.1.15,2013-02-10 14:22:00,
2013-02-10 09:25:00,44.6,37.8,30.13,SE,140,3.0,6.0,77,0.00,,,0.03,Wunderground v.1.15,2013-02-10 14:25:00,
2013-02-10 09:26:00,44.7,37.9,30.13,SSE,159,2.0,6.0,77,0.00,,,0.03,Wunderground v.1.15,2013-02-10 14:26:00,
2013-02-10 09:27:00,44.7,37.9,30.13,SSE,159,2.0,2.0,77,0.00,,,0.03,Wunderground v.1.15,2013-02-10 14:27:00,
2013-02-10 09:30:00,44.8,38.0,30.13,SE,142,1.0,2.0,77,0.00,,,0.03,Wunderground v.1.15,2013-02-10 14:30:00,
2013-02-10 09:32:00,44.9,37.8,30.13,ESE,122,1.0,2.0,76,0.00,,,0.03,Wunderground v.1.15,2013-02-10 14:32:00,
2013-02-10 09:37:00,45.1,38.0,30.13,SE,141,1.0,2.0,76,0.00,,,0.03,Wunderground v.1.15,2013-02-10 14:37:00,
2013-02-10 09:38:00,45.1,38.3,30.13,SE,141,1.0,1.0,77,0.00,,,0.03,Wunderground v.1.15,2013-02-10 14:38:00,
2013-02-10 09:39:00,45.2,38.1,30.14,WSW,244,1.0,2.0,76,0.00,,,0.03,Wunderground v.1.15,2013-02-10 14:39:00,
2013-02-10 09:43:00,45.2,38.1,30.14,WSW,244,1.0,2.0,76,0.00,,,0.03,Wunderground v.1.15,2013-02-10 14:43:00,
2013-02-10 09:44:00,45.2,37.7,30.14,WSW,244,0.0,2.0,75,0.00,,,0.03,Wunderground v.1.15,2013-02-10 14:44:00,
2013-02-10 09:45:00,45.2,37.7,30.14,WSW,244,0.0,2.0,75,0.00,,,0.03,Wunderground v.1.15,2013-02-10 14:45:00,
2013-02-10 09:49:00,45.4,38.3,30.13,South,178,0.0,4.0,76,0.00,,,0.03,Wunderground v.1.15,2013-02-10 14:49:00,
2013-02-10 09:52:00,45.5,38.0,30.13,SSE,164,1.0,4.0,75,0.00,,,0.03,Wunderground v.1.15,2013-02-10 14:52:00,
2013-02-10 09:53:00,45.6,38.1,30.13,SSE,164,1.0,4.0,75,0.00,,,0.03,Wunderground v.1.15,2013-02-10 14:53:00,
2013-02-10 09:54:00,45.6,38.5,30.13,SSE,164,1.0,4.0,76,0.00,,,0.03,Wunderground v.1.15,2013-02-10 14:54:00,
2013-02-10 09:58:00,45.6,38.8,30.13,SSE,164,1.0,1.0,77,0.00,,,0.03,Wunderground v.1.15,2013-02-10 14:58:00,
2013-02-10 09:59:00,45.7,38.9,30.13,SE,145,1.0,3.0,77,0.00,,,0.03,Wunderground v.1.15,2013-02-10 14:59:00,
2013-02-10 10:01:00,45.7,38.2,30.13,SSE,163,1.0,3.0,75,0.00,,,0.03,Wunderground v.1.15,2013-02-10 15:01:00,
2013-02-10 10:03:00,45.8,38.7,30.13,SSE,163,1.0,3.0,76,0.00,,,0.03,Wunderground v.1.15,2013-02-10 15:03:00,
2013-02-10 10:05:00,45.9,39.1,30.13,SSE,163,1.0,3.0,77,0.00,,,0.03,Wunderground v.1.15,2013-02-10 15:05:00,
2013-02-10 10:08:00,46.1,39.0,30.12,SE,146,1.0,2.0,76,0.00,,,0.03,Wunderground v.1.15,2013-02-10 15:08:00,
2013-02-10 10:09:00,46.1,39.0,30.12,SSE,165,1.0,2.0,76,0.00,,,0.03,Wunderground v.1.15,2013-02-10 15:09:00,
2013-02-10 10:11:00,46.3,39.1,30.12,SSE,161,1.0,2.0,76,0.00,,,0.03,Wunderground v.1.15,2013-02-10 15:11:00,
2013-02-10 10:12:00,46.4,39.6,30.12,SSE,159,1.0,2.0,77,0.00,,,0.03,Wunderground v.1.15,2013-02-10 15:12:00,
2013-02-10 10:14:00,46.7,39.9,30.11,SE,146,1.0,2.0,77,0.00,,,0.03,Wunderground v.1.15,2013-02-10 15:14:00,
2013-02-10 10:15:00,46.9,39.7,30.11,SE,146,1.0,5.0,76,0.00,,,0.03,Wunderground v.1.15,2013-02-10 15:15:00,
2013-02-10 10:20:00,47.6,39.0,30.10,SSE,158,2.0,5.0,72,0.00,,,0.03,Wunderground v.1.15,2013-02-10 15:20:00,
2013-02-10 10:21:00,47.8,39.2,30.10,South,171,3.0,5.0,72,0.00,,,0.03,Wunderground v.1.15,2013-02-10 15:21:00,
2013-02-10 10:24:00,48.3,39.3,30.09,SSE,160,3.0,5.0,71,0.00,,,0.03,Wunderground v.1.15,2013-02-10 15:24:00,
2013-02-10 10:27:00,48.8,39.4,30.10,SSE,165,3.0,3.0,70,0.00,,,0.03,Wunderground v.1.15,2013-02-10 15:27:00,
2013-02-10 10:29:00,49.0,38.9,30.10,SE,124,3.0,4.0,68,0.00,,,0.03,Wunderground v.1.15,2013-02-10 15:29:00,
2013-02-10 10:33:00,49.5,39.4,30.09,South,186,3.0,4.0,68,0.00,,,0.03,Wunderground v.1.15,2013-02-10 15:33:00,
2013-02-10 10:35:00,49.7,39.2,30.09,SSE,159,3.0,4.0,67,0.00,,,0.03,Wunderground v.1.15,2013-02-10 15:35:00,
2013-02-10 10:39:00,50.2,39.3,30.08,SSE,157,3.0,4.0,66,0.00,,,0.03,Wunderground v.1.15,2013-02-10 15:39:00,
2013-02-10 10:40:00,50.3,39.0,30.08,SE,146,3.0,4.0,65,0.00,,,0.03,Wunderground v.1.15,2013-02-10 15:40:00,
2013-02-10 10:44:00,50.6,39.7,30.08,South,190,4.0,5.0,66,0.00,,,0.03,Wunderground v.1.15,2013-02-10 15:44:00,
2013-02-10 10:46:00,50.8,38.7,30.08,SSE,167,4.0,5.0,63,0.00,,,0.03,Wunderground v.1.15,2013-02-10 15:46:00,
2013-02-10 10:49:00,51.1,38.5,30.08,South,171,3.0,4.0,62,0.00,,,0.03,Wunderground v.1.15,2013-02-10 15:49:00,
2013-02-10 10:51:00,51.2,38.6,30.08,South,169,4.0,4.0,62,0.00,,,0.03,Wunderground v.1.15,2013-02-10 15:51:00,
2013-02-10 10:55:00,51.4,39.2,30.08,SSE,148,3.0,5.0,63,0.00,,,0.03,Wunderground v.1.15,2013-02-10 15:55:00,
2013-02-10 10:56:00,51.4,39.2,30.08,South,178,3.0,7.0,63,0.00,,,0.03,Wunderground v.1.15,2013-02-10 15:56:00,
2013-02-10 10:59:00,51.6,39.0,30.08,South,186,3.0,4.0,62,0.00,,,0.03,Wunderground v.1.15,2013-02-10 15:59:00,
2013-02-10 11:00:00,51.7,38.7,30.08,South,173,4.0,9.0,61,0.00,,,0.03,Wunderground v.1.15,2013-02-10 16:00:00,
2013-02-10 11:04:00,51.9,39.3,30.08,SSW,194,4.0,9.0,62,0.00,,,0.03,Wunderground v.1.15,2013-02-10 16:04:00,
2013-02-10 11:05:00,51.9,39.7,30.08,South,179,3.0,9.0,63,0.00,,,0.03,Wunderground v.1.15,2013-02-10 16:05:00,
2013-02-10 11:06:00,51.9,40.1,30.08,South,178,3.0,9.0,64,0.00,,,0.03,Wunderground v.1.15,2013-02-10 16:06:00,
2013-02-10 11:07:00,52.0,39.8,30.08,SSW,202,3.0,9.0,63,0.00,,,0.03,Wunderground v.1.15,2013-02-10 16:07:00,
2013-02-10 11:09:00,52.1,40.3,30.08,SSE,168,3.0,4.0,64,0.00,,,0.03,Wunderground v.1.15,2013-02-10 16:09:00,
2013-02-10 11:12:00,52.2,40.8,30.08,South,187,3.0,4.0,65,0.00,,,0.03,Wunderground v.1.15,2013-02-10 16:12:00,
2013-02-10 11:13:00,52.2,40.0,30.08,SSW,205,3.0,4.0,63,0.00,,,0.03,Wunderground v.1.15,2013-02-10 16:13:00,
2013-02-10 11:16:00,52.4,39.8,30.07,SE,141,3.0,7.0,62,0.00,,,0.03,Wunderground v.1.15,2013-02-10 16:16:00,
2013-02-10 11:17:00,52.4,39.8,30.07,SE,128,3.0,7.0,62,0.00,,,0.03,Wunderground v.1.15,2013-02-10 16:17:00,
2013-02-10 11:20:00,52.7,40.0,30.07,South,186,3.0,3.0,62,0.00,,,0.03,Wunderground v.1.15,2013-02-10 16:20:00,
2013-02-10 11:22:00,53.0,40.3,30.07,South,181,4.0,4.0,62,0.00,,,0.03,Wunderground v.1.15,2013-02-10 16:22:00,
2013-02-10 11:23:00,53.2,40.1,30.07,South,190,4.0,4.0,61,0.00,,,0.03,Wunderground v.1.15,2013-02-10 16:23:00,
2013-02-10 11:28:00,53.8,40.2,30.06,South,178,3.0,3.0,60,0.00,,,0.03,Wunderground v.1.15,2013-02-10 16:28:00,
2013-02-10 11:29:00,53.9,40.3,30.06,South,177,3.0,5.0,60,0.00,,,0.03,Wunderground v.1.15,2013-02-10 16:29:00,
2013-02-10 11:30:00,54.1,40.5,30.06,South,176,3.0,5.0,60,0.00,,,0.03,Wunderground v.1.15,2013-02-10 16:30:00,
2013-02-10 11:31:00,54.2,40.2,30.06,SE,145,3.0,7.0,59,0.00,,,0.03,Wunderground v.1.15,2013-02-10 16:31:00,
2013-02-10 11:33:00,54.2,40.2,30.06,SSW,196,3.0,7.0,59,0.00,,,0.03,Wunderground v.1.15,2013-02-10 16:33:00,
2013-02-10 11:37:00,54.5,40.9,30.06,SSE,165,4.0,7.0,60,0.00,,,0.03,Wunderground v.1.15,2013-02-10 16:37:00,
2013-02-10 11:38:00,54.6,41.0,30.06,SE,134,4.0,4.0,60,0.00,,,0.03,Wunderground v.1.15,2013-02-10 16:38:00,
2013-02-10 11:42:00,54.8,40.3,30.06,South,175,4.0,6.0,58,0.00,,,0.03,Wunderground v.1.15,2013-02-10 16:42:00,
2013-02-10 11:44:00,55.0,40.5,30.06,SSE,155,4.0,6.0,58,0.00,,,0.03,Wunderground v.1.15,2013-02-10 16:44:00,
2013-02-10 11:47:00,55.3,40.8,30.06,South,180,4.0,6.0,58,0.00,,,0.03,Wunderground v.1.15,2013-02-10 16:47:00,
2013-02-10 11:51:00,55.6,41.0,30.06,SSW,201,5.0,7.0,58,0.00,,,0.03,Wunderground v.1.15,2013-02-10 16:51:00,
2013-02-10 11:52:00,55.7,40.2,30.06,South,174,5.0,7.0,56,0.00,,,0.03,Wunderground v.1.15,2013-02-10 16:52:00,
2013-02-10 11:53:00,55.8,39.9,30.06,South,186,5.0,7.0,55,0.00,,,0.03,Wunderground v.1.15,2013-02-10 16:53:00,
2013-02-10 11:56:00,55.9,40.0,30.06,South,180,5.0,7.0,55,0.00,,,0.03,Wunderground v.1.15,2013-02-10 16:56:00,
2013-02-10 11:58:00,56.0,39.6,30.05,SSE,166,5.0,10.0,54,0.00,,,0.03,Wunderground v.1.15,2013-02-10 16:58:00,
2013-02-10 12:01:00,56.0,39.1,30.04,ESE,119,6.0,11.0,53,0.00,,,0.03,Wunderground v.1.15,2013-02-10 17:01:00,
2013-02-10 12:02:00,52.9,50.9,29.86,WSW,255,3.0,3.0,93,0.00,,,0.24,Wunderground v.1.15,2013-02-10 17:02:00,
2013-02-10 12:03:00,55.9,39.0,30.04,South,188,6.0,11.0,53,0.00,,,0.03,Wunderground v.1.15,2013-02-10 17:03:00,
2013-02-10 12:04:00,52.9,50.9,29.87,SSW,193,3.0,5.0,93,0.00,,,0.00,Wunderground v.1.15,2013-02-10 17:04:00,
2013-02-10 12:05:00,53.0,51.0,29.87,SSW,209,3.0,5.0,93,0.00,,,0.00,Wunderground v.1.15,2013-02-10 17:05:00,
2013-02-10 12:06:00,53.0,51.0,29.87,South,184,3.0,5.0,93,0.00,,,0.00,Wunderground v.1.15,2013-02-10 17:06:00,
2013-02-10 12:07:00,55.9,40.0,30.03,SE,136,6.0,11.0,55,0.00,,,0.03,Wunderground v.1.15,2013-02-10 17:07:00,
2013-02-10 12:08:00,53.0,51.0,29.87,SW,225,4.0,7.0,93,0.00,,,0.00,Wunderground v.1.15,2013-02-10 17:08:00,
2013-02-10 12:09:00,55.9,38.5,30.02,South,180,6.0,9.0,52,0.00,,,0.03,Wunderground v.1.15,2013-02-10 17:09:00,
2013-02-10 12:10:00,55.9,38.5,30.02,South,183,6.0,9.0,52,0.00,,,0.03,Wunderground v.1.15,2013-02-10 17:10:00,
2013-02-10 12:11:00,53.1,51.1,29.87,SW,235,4.0,4.0,93,0.00,,,0.00,Wunderground v.1.15,2013-02-10 17:11:00,
2013-02-10 12:12:00,53.1,51.1,29.87,SSW,206,4.0,4.0,93,0.00,,,0.00,Wunderground v.1.15,2013-02-10 17:12:00,
2013-02-10 12:13:00,53.2,51.2,29.86,South,184,4.0,4.0,93,0.00,,,0.00,Wunderground v.1.15,2013-02-10 17:13:00,
2013-02-10 12:14:00,53.2,51.2,29.86,SSW,201,4.0,5.0,93,0.00,,,0.00,Wunderground v.1.15,2013-02-10 17:14:00,
2013-02-10 12:15:00,53.3,51.3,29.86,WSW,241,4.0,6.0,93,0.00,,,0.00,Wunderground v.1.15,2013-02-10 17:15:00,
2013-02-10 12:16:00,56.0,39.1,30.01,SE,137,5.0,13.0,53,0.00,,,0.03,Wunderground v.1.15,2013-02-10 17:16:00,
2013-02-10 12:17:00,56.1,39.2,30.01,SSE,156,5.0,13.0,53,0.00,,,0.03,Wunderground v.1.15,2013-02-10 17:17:00,
2013-02-10 12:18:00,53.4,51.1,29.87,South,177,4.0,6.0,92,0.00,,,0.00,Wunderground v.1.15,2013-02-10 17:18:00,
2013-02-10 12:19:00,53.4,51.1,29.87,WSW,255,4.0,6.0,92,0.00,,,0.00,Wunderground v.1.15,2013-02-10 17:19:00,
2013-02-10 12:20:00,53.4,51.1,29.87,SW,215,4.0,4.0,92,0.00,,,0.00,Wunderground v.1.15,2013-02-10 17:20:00,
2013-02-10 12:21:00,53.4,51.1,29.87,South,171,4.0,5.0,92,0.00,,,0.00,Wunderground v.1.15,2013-02-10 17:21:00,
2013-02-10 12:22:00,53.4,51.1,29.87,SSW,197,4.0,8.0,92,0.00,,,0.00,Wunderground v.1.15,2013-02-10 17:22:00,
2013-02-10 12:23:00,56.3,39.9,30.00,SSE,152,4.0,11.0,54,0.00,,,0.03,Wunderground v.1.15,2013-02-10 17:23:00,
2013-02-10 12:24:00,56.3,39.9,30.00,SSE,167,4.0,11.0,54,0.00,,,0.03,Wunderground v.1.15,2013-02-10 17:24:00,
2013-02-10 12:25:00,53.5,51.2,29.87,WSW,244,4.0,8.0,92,0.00,,,0.00,Wunderground v.1.15,2013-02-10 17:25:00,
2013-02-10 12:26:00,53.6,51.3,29.87,SSW,194,4.0,8.0,92,0.00,,,0.00,Wunderground v.1.15,2013-02-10 17:26:00,
2013-02-10 12:27:00,53.6,51.3,29.87,South,190,4.0,8.0,92,0.00,,,0.00,Wunderground v.1.15,2013-02-10 17:27:00,
2013-02-10 12:28:00,53.6,51.3,29.87,SW,224,4.0,8.0,92,0.00,,,0.00,Wunderground v.1.15,2013-02-10 17:28:00,
2013-02-10 12:29:00,56.4,39.5,30.00,SSE,149,4.0,5.0,53,0.00,,,0.03,Wunderground v.1.15,2013-02-10 17:29:00,
2013-02-10 12:30:00,53.7,51.4,29.87,SSW,194,5.0,5.0,92,0.00,,,0.00,Wunderground v.1.15,2013-02-10 17:30:00,
2013-02-10 12:31:00,53.7,51.4,29.87,West,280,5.0,5.0,92,0.00,,,0.00,Wunderground v.1.15,2013-02-10 17:31:00,
2013-02-10 12:32:00,53.7,51.4,29.86,SW,233,5.0,6.0,92,0.00,,,0.00,Wunderground v.1.15,2013-02-10 17:32:00,
2013-02-10 12:33:00,53.7,51.4,29.87,SSW,205,4.0,6.0,92,0.00,,,0.00,Wunderground v.1.15,2013-02-10 17:33:00,
2013-02-10 12:34:00,56.4,40.0,30.00,ESE,121,4.0,5.0,54,0.00,,,0.03,Wunderground v.1.15,2013-02-10 17:34:00,
2013-02-10 12:35:00,53.7,51.4,29.87,SW,225,5.0,6.0,92,0.00,,,0.00,Wunderground v.1.15,2013-02-10 17:35:00,
2013-02-10 12:36:00,56.5,39.6,29.99,SE,135,4.0,11.0,53,0.00,,,0.03,Wunderground v.1.15,2013-02-10 17:36:00,
2013-02-10 12:37:00,53.8,51.5,29.86,SSW,202,5.0,7.0,92,0.00,,,0.00,Wunderground v.1.15,2013-02-10 17:37:00,
2013-02-10 12:38:00,53.9,51.6,29.86,South,183,5.0,7.0,92,0.00,,,0.00,Wunderground v.1.15,2013-02-10 17:38:00,
2013-02-10 12:39:00,53.9,51.6,29.86,SSW,197,5.0,7.0,92,0.00,,,0.00,Wunderground v.1.15,2013-02-10 17:39:00,
2013-02-10 12:40:00,53.9,51.6,29.86,SSW,193,5.0,5.0,92,0.00,,,0.00,Wunderground v.1.15,2013-02-10 17:40:00,
2013-02-10 12:41:00,56.5,39.1,29.99,South,184,5.0,6.0,52,0.00,,,0.03,Wunderground v.1.15,2013-02-10 17:41:00,
2013-02-10 12:42:00,56.5,38.6,29.99,SSE,161,5.0,6.0,51,0.00,,,0.03,Wunderground v.1.15,2013-02-10 17:42:00,
2013-02-10 12:43:00,56.6,38.7,29.98,ESE,121,5.0,6.0,51,0.00,,,0.03,Wunderground v.1.15,2013-02-10 17:43:00,
2013-02-10 12:44:00,53.9,51.3,29.86,SW,219,5.0,9.0,91,0.00,,,0.00,Wunderground v.1.15,2013-02-10 17:44:00,
2013-02-10 12:45:00,56.6,39.2,29.99,SSE,165,5.0,6.0,52,0.00,,,0.03,Wunderground v.1.15,2013-02-10 17:45:00,
2013-02-10 12:46:00,53.9,51.3,29.87,WSW,247,5.0,9.0,91,0.00,,,0.00,Wunderground v.1.15,2013-02-10 17:46:00,
2013-02-10 12:47:00,56.7,38.8,29.99,South,183,5.0,15.0,51,0.00,,,0.03,Wunderground v.1.15,2013-02-10 17:47:00,
2013-02-10 12:48:00,56.8,38.9,29.99,SSW,194,5.0,9.0,51,0.00,,,0.03,Wunderground v.1.15,2013-02-10 17:48:00,
2013-02-10 12:49:00,54.1,51.8,29.87,SW,225,5.0,9.0,92,0.00,,,0.00,Wunderground v.1.15,2013-02-10 17:49:00,
2013-02-10 12:50:00,56.9,38.9,29.99,SSE,150,6.0,9.0,51,0.00,,,0.03,Wunderground v.1.15,2013-02-10 17:50:00,
2013-02-10 12:51:00,54.2,51.6,29.87,WSW,250,5.0,10.0,91,0.00,,,0.00,Wunderground v.1.15,2013-02-10 17:51:00,
2013-02-10 12:52:00,54.2,51.6,29.88,South,179,5.0,10.0,91,0.00,,,0.00,Wunderground v.1.15,2013-02-10 17:52:00,
2013-02-10 12:53:00,56.9,38.9,29.98,South,177,6.0,9.0,51,0.00,,,0.03,Wunderground v.1.15,2013-02-10 17:53:00,
2013-02-10 12:55:00,54.3,51.7,29.88,SW,215,5.0,10.0,91,0.00,,,0.00,Wunderground v.1.15,2013-02-10 17:55:00,
2013-02-10 12:56:00,57.0,39.0,29.98,South,178,6.0,9.0,51,0.00,,,0.03,Wunderground v.1.15,2013-02-10 17:56:00,
2013-02-10 12:59:00,57.0,39.0,29.98,SSW,194,6.0,8.0,51,0.00,,,0.03,Wunderground v.1.15,2013-02-10 17:59:00,
2013-02-10 13:00:00,57.0,38.5,29.98,ESE,109,6.0,8.0,50,0.00,,,0.03,Wunderground v.1.15,2013-02-10 18:00:00,
2013-02-10 13:02:00,56.9,38.4,29.97,South,179,6.0,11.0,50,0.00,,,0.03,Wunderground v.1.15,2013-02-10 18:02:00,
2013-02-10 13:03:00,54.5,51.6,29.88,SSW,192,5.0,9.0,90,0.00,,,0.00,Wunderground v.1.15,2013-02-10 18:03:00,
2013-02-10 13:05:00,56.8,39.4,29.97,South,170,6.0,11.0,52,0.00,,,0.03,Wunderground v.1.15,2013-02-10 18:05:00,
2013-02-10 13:07:00,56.7,38.3,29.96,South,191,6.0,9.0,50,0.00,,,0.03,Wunderground v.1.15,2013-02-10 18:07:00,
2013-02-10 13:09:00,54.8,51.9,29.88,SSW,194,5.0,9.0,90,0.00,,,0.00,Wunderground v.1.15,2013-02-10 18:09:00,
2013-02-10 13:10:00,56.7,38.3,29.96,SSE,163,6.0,9.0,50,0.00,,,0.03,Wunderground v.1.15,2013-02-10 18:10:00,
2013-02-10 13:12:00,56.6,38.2,29.96,SSE,156,6.0,9.0,50,0.00,,,0.03,Wunderground v.1.15,2013-02-10 18:12:00,
2013-02-10 13:13:00,54.8,51.9,29.88,SW,235,5.0,7.0,90,0.00,,,0.00,Wunderground v.1.15,2013-02-10 18:13:00,
2013-02-10 13:14:00,54.8,51.9,29.88,SSW,200,5.0,7.0,90,0.00,,,0.00,Wunderground v.1.15,2013-02-10 18:14:00,
2013-02-10 13:15:00,54.8,51.9,29.88,South,188,5.0,7.0,90,0.00,,,0.00,Wunderground v.1.15,2013-02-10 18:15:00,
2013-02-10 13:16:00,56.6,38.7,29.96,SSW,196,6.0,9.0,51,0.00,,,0.03,Wunderground v.1.15,2013-02-10 18:16:00,
2013-02-10 13:17:00,54.8,51.9,29.88,SW,218,6.0,7.0,90,0.00,,,0.00,Wunderground v.1.15,2013-02-10 18:17:00,
2013-02-10 13:18:00,56.6,38.7,29.96,South,173,6.0,6.0,51,0.00,,,0.03,Wunderground v.1.15,2013-02-10 18:18:00,
2013-02-10 13:19:00,54.7,51.5,29.88,West,272,6.0,7.0,89,0.00,,,0.00,Wunderground v.1.15,2013-02-10 18:19:00,
2013-02-10 13:20:00,56.6,38.7,29.95,SE,140,5.0,8.0,51,0.00,,,0.03,Wunderground v.1.15,2013-02-10 18:20:00,
2013-02-10 13:21:00,56.6,38.2,29.95,ESE,117,5.0,8.0,50,0.00,,,0.03,Wunderground v.1.15,2013-02-10 18:21:00,
2013-02-10 13:22:00,54.8,51.9,29.88,SW,230,5.0,6.0,90,0.00,,,0.00,Wunderground v.1.15,2013-02-10 18:22:00,
2013-02-10 13:23:00,56.6,38.2,29.95,SW,227,5.0,8.0,50,0.00,,,0.03,Wunderground v.1.15,2013-02-10 18:23:00,
2013-02-10 13:24:00,56.6,38.2,29.95,SSE,157,6.0,8.0,50,0.00,,,0.03,Wunderground v.1.15,2013-02-10 18:24:00,
2013-02-10 13:27:00,54.9,51.7,29.88,SSW,200,6.0,14.0,89,0.00,,,0.00,Wunderground v.1.15,2013-02-10 18:27:00,
2013-02-10 13:28:00,56.6,38.7,29.96,SSE,161,5.0,5.0,51,0.00,,,0.03,Wunderground v.1.15,2013-02-10 18:28:00,
2013-02-10 13:29:00,56.6,38.7,29.96,SSW,201,5.0,6.0,51,0.00,,,0.03,Wunderground v.1.15,2013-02-10 18:29:00,
2013-02-10 13:30:00,56.6,38.7,29.96,SSW,198,5.0,6.0,51,0.00,,,0.03,Wunderground v.1.15,2013-02-10 18:30:00,
2013-02-10 13:32:00,54.9,51.7,29.88,SSW,196,6.0,6.0,89,0.00,,,0.00,Wunderground v.1.15,2013-02-10 18:32:00,
2013-02-10 13:33:00,56.6,38.7,29.96,South,186,4.0,6.0,51,0.00,,,0.03,Wunderground v.1.15,2013-02-10 18:33:00,
2013-02-10 13:35:00,56.6,38.2,29.96,South,178,4.0,6.0,50,0.00,,,0.03,Wunderground v.1.15,2013-02-10 18:35:00,
2013-02-10 13:36:00,54.9,51.7,29.88,SSW,192,5.0,8.0,89,0.00,,,0.00,Wunderground v.1.15,2013-02-10 18:36:00,
2013-02-10 13:38:00,56.6,38.7,29.97,SSW,194,4.0,4.0,51,0.00,,,0.03,Wunderground v.1.15,2013-02-10 18:38:00,
2013-02-10 13:39:00,56.6,38.7,29.97,SSE,157,4.0,5.0,51,0.00,,,0.03,Wunderground v.1.15,2013-02-10 18:39:00,
2013-02-10 13:40:00,55.0,51.8,29.88,SW,222,5.0,5.0,89,0.00,,,0.00,Wunderground v.1.15,2013-02-10 18:40:00,
2013-02-10 13:41:00,56.6,38.7,29.97,South,173,4.0,5.0,51,0.00,,,0.03,Wunderground v.1.15,2013-02-10 18:41:00,
2013-02-10 13:44:00,56.6,38.7,29.97,SW,217,3.0,5.0,51,0.00,,,0.03,Wunderground v.1.15,2013-02-10 18:44:00,
2013-02-10 13:45:00,56.6,38.7,29.97,South,175,4.0,5.0,51,0.00,,,0.03,Wunderground v.1.15,2013-02-10 18:45:00,
2013-02-10 13:46:00,54.9,51.7,29.87,SSW,196,5.0,6.0,89,0.00,,,0.00,Wunderground v.1.15,2013-02-10 18:46:00,
2013-02-10 13:49:00,56.7,39.3,29.97,SSW,193,3.0,6.0,52,0.00,,,0.03,Wunderground v.1.15,2013-02-10 18:49:00,
2013-02-10 13:50:00,54.8,51.6,29.87,South,190,5.0,5.0,89,0.00,,,0.00,Wunderground v.1.15,2013-02-10 18:50:00,
2013-02-10 13:51:00,56.7,38.8,29.98,SSW,207,4.0,6.0,51,0.00,,,0.03,Wunderground v.1.15,2013-02-10 18:51:00,
2013-02-10 13:53:00,54.8,51.6,29.87,WSW,238,4.0,5.0,89,0.00,,,0.00,Wunderground v.1.15,2013-02-10 18:53:00,
2013-02-10 13:55:00,56.8,38.9,29.98,South,191,3.0,6.0,51,0.00,,,0.03,Wunderground v.1.15,2013-02-10 18:55:00,
2013-02-10 13:56:00,56.8,39.4,29.98,SSE,157,3.0,6.0,52,0.00,,,0.03,Wunderground v.1.15,2013-02-10 18:56:00,
2013-02-10 13:59:00,54.6,51.4,29.87,SSW,200,4.0,9.0,89,0.00,,,0.00,Wunderground v.1.15,2013-02-10 18:59:00,
2013-02-10 14:01:00,54.6,51.4,29.87,WSW,252,4.0,6.0,89,0.00,,,0.00,Wunderground v.1.15,2013-02-10 19:01:00,
2013-02-10 14:02:00,56.7,39.3,30.00,SSW,201,3.0,9.0,52,0.00,,,0.03,Wunderground v.1.15,2013-02-10 19:02:00,
2013-02-10 14:04:00,56.8,39.8,30.00,South,173,4.0,9.0,53,0.00,,,0.03,Wunderground v.1.15,2013-02-10 19:04:00,
2013-02-10 14:05:00,56.7,39.7,30.00,SSW,196,4.0,9.0,53,0.00,,,0.03,Wunderground v.1.15,2013-02-10 19:05:00,
2013-02-10 14:06:00,56.7,39.7,30.00,SSW,212,4.0,9.0,53,0.00,,,0.03,Wunderground v.1.15,2013-02-10 19:06:00,
2013-02-10 14:10:00,56.2,42.9,30.00,SSW,194,3.0,4.0,61,0.00,,,0.04,Wunderground v.1.15,2013-02-10 19:10:00,
2013-02-10 14:11:00,56.0,42.7,30.00,SW,220,3.0,6.0,61,0.00,,,0.04,Wunderground v.1.15,2013-02-10 19:11:00,
2013-02-10 14:14:00,55.0,43.8,30.01,SW,231,3.0,7.0,66,0.09,,,0.05,Wunderground v.1.15,2013-02-10 19:14:00,
2013-02-10 14:16:00,54.1,44.2,30.01,SW,215,4.0,7.0,69,0.28,,,0.06,Wunderground v.1.15,2013-02-10 19:16:00,
2013-02-10 14:19:00,53.3,44.5,30.01,SSW,207,4.0,4.0,72,0.18,,,0.06,Wunderground v.1.15,2013-02-10 19:19:00,
2013-02-10 14:21:00,52.7,44.6,30.01,South,187,4.0,6.0,74,0.11,,,0.06,Wunderground v.1.15,2013-02-10 19:21:00,
2013-02-10 14:24:00,52.1,45.1,30.02,SSW,206,3.0,6.0,77,0.08,,,0.07,Wunderground v.1.15,2013-02-10 19:24:00,
2013-02-10 14:26:00,51.6,45.0,30.02,South,186,3.0,6.0,78,0.30,,,0.08,Wunderground v.1.15,2013-02-10 19:26:00,
2013-02-10 14:27:00,51.4,44.8,30.02,SW,215,3.0,6.0,78,0.28,,,0.08,Wunderground v.1.15,2013-02-10 19:27:00,
2013-02-10 14:31:00,50.7,45.4,30.02,SW,221,3.0,6.0,82,0.41,,,0.10,Wunderground v.1.15,2013-02-10 19:31:00,
2013-02-10 14:32:00,50.6,45.6,30.01,SSW,192,2.0,6.0,83,0.24,,,0.10,Wunderground v.1.15,2013-02-10 19:32:00,
2013-02-10 14:34:00,50.4,45.4,30.01,SSW,200,2.0,6.0,83,0.17,,,0.10,Wunderground v.1.15,2013-02-10 19:34:00,
2013-02-10 14:38:00,50.1,45.8,30.01,SSW,198,2.0,2.0,85,0.25,,,0.12,Wunderground v.1.15,2013-02-10 19:38:00,
2013-02-10 14:39:00,50.1,45.8,30.01,SSW,198,2.0,2.0,85,0.21,,,0.12,Wunderground v.1.15,2013-02-10 19:39:00,
2013-02-10 14:43:00,50.0,46.0,30.00,SSE,152,1.0,2.0,86,0.27,,,0.14,Wunderground v.1.15,2013-02-10 19:43:00,
2013-02-10 14:47:00,49.8,46.1,30.00,South,188,1.0,5.0,87,0.16,,,0.15,Wunderground v.1.15,2013-02-10 19:47:00,
2013-02-10 14:49:00,49.7,46.0,30.00,South,186,1.0,4.0,87,0.26,,,0.16,Wunderground v.1.15,2013-02-10 19:49:00,
2013-02-10 14:50:00,49.7,46.0,30.00,South,170,1.0,4.0,87,0.19,,,0.16,Wunderground v.1.15,2013-02-10 19:50:00,
2013-02-10 14:55:00,49.7,46.3,30.00,SSE,162,2.0,4.0,88,0.25,,,0.18,Wunderground v.1.15,2013-02-10 19:55:00,
2013-02-10 14:56:00,49.6,46.2,30.00,South,185,1.0,4.0,88,0.22,,,0.18,Wunderground v.1.15,2013-02-10 19:56:00,
2013-02-10 14:58:00,49.6,46.5,29.99,SSW,203,1.0,2.0,89,0.15,,,0.18,Wunderground v.1.15,2013-02-10 19:58:00,
2013-02-10 15:02:00,49.5,46.4,30.00,South,187,1.0,3.0,89,0.09,,,0.19,Wunderground v.1.15,2013-02-10 20:02:00,
2013-02-10 15:03:00,49.5,46.4,29.99,South,174,2.0,3.0,89,0.09,,,0.19,Wunderground v.1.15,2013-02-10 20:03:00,
2013-02-10 15:05:00,49.6,46.5,29.99,South,174,2.0,3.0,89,0.16,,,0.20,Wunderground v.1.15,2013-02-10 20:05:00,
2013-02-10 15:06:00,49.6,46.5,29.99,SSE,167,2.0,4.0,89,0.16,,,0.20,Wunderground v.1.15,2013-02-10 20:06:00,
2013-02-10 15:09:00,49.6,46.8,29.98,SSE,155,2.0,3.0,90,0.11,,,0.20,Wunderground v.1.15,2013-02-10 20:09:00,
2013-02-10 15:11:00,49.6,46.8,29.98,South,173,2.0,3.0,90,0.09,,,0.20,Wunderground v.1.15,2013-02-10 20:11:00,
2013-02-10 15:14:00,49.6,46.5,29.98,South,178,2.0,3.0,89,0.06,,,0.20,Wunderground v.1.15,2013-02-10 20:14:00,
2013-02-10 15:17:00,49.6,46.5,29.97,SSE,158,2.0,5.0,89,0.05,,,0.21,Wunderground v.1.15,2013-02-10 20:17:00,
2013-02-10 15:20:00,49.6,46.5,29.97,SSE,167,3.0,4.0,89,0.05,,,0.21,Wunderground v.1.15,2013-02-10 20:20:00,
2013-02-10 15:22:00,49.7,46.6,29.96,SSE,161,3.0,4.0,89,0.05,,,0.21,Wunderground v.1.15,2013-02-10 20:22:00,
2013-02-10 15:24:00,49.7,46.6,29.96,SSE,156,3.0,4.0,89,0.10,,,0.22,Wunderground v.1.15,2013-02-10 20:24:00,
2013-02-10 15:25:00,49.7,46.6,29.96,South,177,3.0,4.0,89,0.10,,,0.22,Wunderground v.1.15,2013-02-10 20:25:00,
2013-02-10 15:28:00,49.6,46.8,29.95,South,184,3.0,3.0,90,0.10,,,0.22,Wunderground v.1.15,2013-02-10 20:28:00,
2013-02-10 15:29:00,49.6,46.8,29.95,SE,129,3.0,5.0,90,0.09,,,0.22,Wunderground v.1.15,2013-02-10 20:29:00,
2013-02-10 15:31:00,49.6,46.8,29.95,SE,142,3.0,8.0,90,0.07,,,0.22,Wunderground v.1.15,2013-02-10 20:31:00,
2013-02-10 15:33:00,49.6,46.8,29.94,SSE,165,4.0,8.0,90,0.06,,,0.22,Wunderground v.1.15,2013-02-10 20:33:00,
2013-02-10 15:35:00,49.6,46.8,29.93,SSE,159,4.0,8.0,90,0.05,,,0.23,Wunderground v.1.15,2013-02-10 20:35:00,
2013-02-10 15:40:00,49.6,46.8,29.91,SE,129,5.0,8.0,90,0.05,,,0.23,Wunderground v.1.15,2013-02-10 20:40:00,
2013-02-10 15:41:00,49.6,46.8,29.90,SE,131,5.0,8.0,90,0.05,,,0.23,Wunderground v.1.15,2013-02-10 20:41:00,
2013-02-10 15:42:00,49.6,46.8,29.90,South,177,5.0,8.0,90,0.05,,,0.23,Wunderground v.1.15,2013-02-10 20:42:00,
2013-02-10 15:47:00,49.6,46.8,29.93,SSE,148,4.0,8.0,90,0.05,,,0.23,Wunderground v.1.15,2013-02-10 20:47:00,
2013-02-10 15:48:00,49.6,46.8,29.93,South,184,4.0,7.0,90,0.04,,,0.23,Wunderground v.1.15,2013-02-10 20:48:00,
2013-02-10 15:50:00,49.6,46.8,29.93,South,169,4.0,8.0,90,0.04,,,0.23,Wunderground v.1.15,2013-02-10 20:50:00,
2013-02-10 15:53:00,49.7,46.9,29.91,SE,135,5.0,8.0,90,0.04,,,0.24,Wunderground v.1.15,2013-02-10 20:53:00,
2013-02-10 15:55:00,49.7,46.9,29.89,South,185,5.0,8.0,90,0.04,,,0.24,Wunderground v.1.15,2013-02-10 20:55:00,
2013-02-10 15:56:00,49.7,47.2,29.88,SE,131,5.0,8.0,91,0.04,,,0.24,Wunderground v.1.15,2013-02-10 20:56:00,
2013-02-10 15:58:00,49.7,46.9,29.89,SSE,149,5.0,11.0,90,0.04,,,0.24,Wunderground v.1.15,2013-02-10 20:58:00,
2013-02-10 16:02:00,49.7,47.2,29.90,South,180,5.0,11.0,91,0.04,,,0.24,Wunderground v.1.15,2013-02-10 21:02:00,
2013-02-10 16:04:00,49.7,46.9,29.90,ESE,123,5.0,11.0,90,0.04,,,0.24,Wunderground v.1.15,2013-02-10 21:04:00,
2013-02-10 16:05:00,49.7,46.9,29.89,South,173,6.0,11.0,90,0.04,,,0.24,Wunderground v.1.15,2013-02-10 21:05:00,
2013-02-10 16:08:00,49.8,47.0,29.89,SSE,153,6.0,6.0,90,0.04,,,0.24,Wunderground v.1.15,2013-02-10 21:08:00,
2013-02-10 16:10:00,49.8,47.0,29.88,SSE,165,5.0,6.0,90,0.00,,,0.24,Wunderground v.1.15,2013-02-10 21:10:00,
2013-02-10 16:11:00,49.8,47.0,29.89,ESE,118,5.0,7.0,90,0.00,,,0.24,Wunderground v.1.15,2013-02-10 21:11:00,
2013-02-10 16:16:00,49.8,47.0,29.88,South,185,5.0,7.0,90,0.00,,,0.24,Wunderground v.1.15,2013-02-10 21:16:00,
2013-02-10 16:17:00,49.7,46.9,29.88,SE,137,4.0,7.0,90,0.00,,,0.24,Wunderground v.1.15,2013-02-10 21:17:00,
2013-02-10 16:22:00,49.7,46.9,29.87,SE,138,5.0,8.0,90,0.00,,,0.24,Wunderground v.1.15,2013-02-10 21:22:00,
2013-02-10 16:23:00,49.7,46.9,29.86,ESE,119,5.0,8.0,90,0.00,,,0.24,Wunderground v.1.15,2013-02-10 21:23:00,
2013-02-10 16:24:00,49.7,46.9,29.86,SE,144,5.0,13.0,90,0.00,,,0.24,Wunderground v.1.15,2013-02-10 21:24:00,
2013-02-10 16:29:00,49.8,47.0,29.84,South,179,7.0,10.0,90,0.00,,,0.24,Wunderground v.1.15,2013-02-10 21:29:00,
2013-02-10 16:30:00,49.8,47.0,29.84,SSW,211,7.0,10.0,90,0.00,,,0.24,Wunderground v.1.15,2013-02-10 21:30:00,
2013-02-10 16:34:00,49.9,46.8,29.85,South,173,8.0,14.0,89,0.00,,,0.24,Wunderground v.1.15,2013-02-10 21:34:00,
2013-02-10 16:36:00,49.9,46.8,29.85,SSW,196,8.0,14.0,89,0.00,,,0.24,Wunderground v.1.15,2013-02-10 21:36:00,
2013-02-10 16:37:00,49.9,46.8,29.86,South,171,7.0,14.0,89,0.00,,,0.24,Wunderground v.1.15,2013-02-10 21:37:00,
2013-02-10 16:39:00,49.9,46.8,29.86,South,175,7.0,10.0,89,0.00,,,0.24,Wunderground v.1.15,2013-02-10 21:39:00,
2013-02-10 16:42:00,49.9,46.8,29.86,East,93,6.0,10.0,89,0.00,,,0.24,Wunderground v.1.15,2013-02-10 21:42:00,
2013-02-10 16:43:00,49.9,46.8,29.87,SSE,165,6.0,10.0,89,0.00,,,0.24,Wunderground v.1.15,2013-02-10 21:43:00,
2013-02-10 16:45:00,49.8,46.7,29.87,South,172,5.0,10.0,89,0.00,,,0.24,Wunderground v.1.15,2013-02-10 21:45:00,
2013-02-10 16:48:00,49.8,46.7,29.88,SSE,155,4.0,6.0,89,0.00,,,0.24,Wunderground v.1.15,2013-02-10 21:48:00,
2013-02-10 16:49:00,49.7,46.6,29.88,South,169,4.0,6.0,89,0.00,,,0.24,Wunderground v.1.15,2013-02-10 21:49:00,
2013-02-10 16:52:00,49.7,46.6,29.89,SW,221,4.0,7.0,89,0.00,,,0.24,Wunderground v.1.15,2013-02-10 21:52:00,
2013-02-10 16:53:00,49.8,46.7,29.89,SSW,196,4.0,7.0,89,0.00,,,0.24,Wunderground v.1.15,2013-02-10 21:53:00,
2013-02-10 16:55:00,49.7,46.6,29.90,South,180,3.0,7.0,89,0.00,,,0.24,Wunderground v.1.15,2013-02-10 21:55:00,
2013-02-10 16:56:00,49.7,46.6,29.90,South,180,4.0,7.0,89,0.00,,,0.24,Wunderground v.1.15,2013-02-10 21:56:00,
2013-02-10 17:00:00,49.7,46.6,29.90,South,175,4.0,6.0,89,0.00,,,0.24,Wunderground v.1.15,2013-02-10 22:00:00,
2013-02-10 17:02:00,49.8,46.7,29.90,SSE,154,4.0,6.0,89,0.00,,,0.24,Wunderground v.1.15,2013-02-10 22:02:00,
2013-02-10 17:06:00,49.7,46.6,29.90,SSE,168,4.0,6.0,89,0.00,,,0.24,Wunderground v.1.15,2013-02-10 22:06:00,
2013-02-10 17:08:00,49.7,46.6,29.90,SE,128,4.0,4.0,89,0.00,,,0.24,Wunderground v.1.15,2013-02-10 22:08:00,
2013-02-10 17:09:00,49.7,46.6,29.90,South,184,4.0,4.0,89,0.00,,,0.24,Wunderground v.1.15,2013-02-10 22:09:00,
2013-02-10 17:12:00,49.6,46.5,29.90,SSW,206,3.0,5.0,89,0.00,,,0.24,Wunderground v.1.15,2013-02-10 22:12:00,
2013-02-10 17:13:00,49.6,46.5,29.90,South,171,4.0,5.0,89,0.00,,,0.24,Wunderground v.1.15,2013-02-10 22:13:00,
2013-02-10 17:15:00,49.6,46.2,29.90,SSW,196,4.0,5.0,88,0.00,,,0.24,Wunderground v.1.15,2013-02-10 22:15:00,
2013-02-10 17:18:00,49.5,46.1,29.90,South,186,4.0,4.0,88,0.00,,,0.24,Wunderground v.1.15,2013-02-10 22:18:00,
2013-02-10 17:19:00,49.5,46.4,29.91,South,180,4.0,4.0,89,0.00,,,0.24,Wunderground v.1.15,2013-02-10 22:19:00,
2013-02-10 17:20:00,49.5,46.4,29.90,SSE,165,4.0,5.0,89,0.00,,,0.24,Wunderground v.1.15,2013-02-10 22:20:00,
2013-02-10 17:21:00,49.5,46.1,29.90,South,173,4.0,5.0,88,0.00,,,0.24,Wunderground v.1.15,2013-02-10 22:21:00,
2013-02-10 17:25:00,49.5,46.1,29.90,SE,138,4.0,7.0,88,0.00,,,0.24,Wunderground v.1.15,2013-02-10 22:25:00,
2013-02-10 17:27:00,49.5,46.1,29.90,SSE,147,4.0,7.0,88,0.00,,,0.24,Wunderground v.1.15,2013-02-10 22:27:00,
2013-02-10 17:29:00,49.5,46.1,29.90,South,176,5.0,7.0,88,0.00,,,0.24,Wunderground v.1.15,2013-02-10 22:29:00,
2013-02-10 17:32:00,49.5,46.1,29.90,SW,227,5.0,7.0,88,0.00,,,0.24,Wunderground v.1.15,2013-02-10 22:32:00,
2013-02-10 17:33:00,49.5,46.1,29.90,SE,127,5.0,7.0,88,0.00,,,0.24,Wunderground v.1.15,2013-02-10 22:33:00,
2013-02-10 17:39:00,49.4,46.0,29.91,South,188,5.0,7.0,88,0.00,,,0.24,Wunderground v.1.15,2013-02-10 22:39:00,
2013-02-10 17:40:00,49.4,46.0,29.91,South,186,5.0,7.0,88,0.00,,,0.24,Wunderground v.1.15,2013-02-10 22:40:00,
2013-02-10 17:41:00,49.4,46.0,29.91,SSE,161,5.0,7.0,88,0.00,,,0.24,Wunderground v.1.15,2013-02-10 22:41:00,
2013-02-10 17:42:00,49.4,46.0,29.91,South,190,5.0,8.0,88,0.00,,,0.24,Wunderground v.1.15,2013-02-10 22:42:00,
2013-02-10 17:47:00,49.5,45.8,29.90,SSW,196,6.0,9.0,87,0.00,,,0.24,Wunderground v.1.15,2013-02-10 22:47:00,
2013-02-10 17:48:00,49.5,45.8,29.90,SSE,161,6.0,6.0,87,0.00,,,0.24,Wunderground v.1.15,2013-02-10 22:48:00,
2013-02-10 17:50:00,49.5,45.8,29.90,SSW,206,5.0,6.0,87,0.00,,,0.24,Wunderground v.1.15,2013-02-10 22:50:00,
2013-02-10 17:54:00,49.5,45.8,29.91,South,186,5.0,6.0,87,0.00,,,0.24,Wunderground v.1.15,2013-02-10 22:54:00,
2013-02-10 17:55:00,49.5,45.8,29.91,SSW,201,5.0,6.0,87,0.00,,,0.24,Wunderground v.1.15,2013-02-10 22:55:00,
2013-02-10 17:57:00,49.5,45.8,29.90,SSE,160,4.0,8.0,87,0.00,,,0.24,Wunderground v.1.15,2013-02-10 22:57:00,
2013-02-10 18:01:00,49.5,45.8,29.90,South,176,4.0,11.0,87,0.00,,,0.24,Wunderground v.1.15,2013-02-10 23:01:00,
2013-02-10 18:02:00,49.5,45.8,29.90,SSE,166,5.0,11.0,87,0.00,,,0.24,Wunderground v.1.15,2013-02-10 23:02:00,
2013-02-10 18:06:00,49.6,45.9,29.89,SE,138,5.0,13.0,87,0.00,,,0.24,Wunderground v.1.15,2013-02-10 23:06:00,
2013-02-10 18:08:00,49.7,46.0,29.89,SSW,192,5.0,5.0,87,0.00,,,0.24,Wunderground v.1.15,2013-02-10 23:08:00,
2013-02-10 18:10:00,49.7,46.0,29.89,South,182,5.0,5.0,87,0.00,,,0.24,Wunderground v.1.15,2013-02-10 23:10:00,
2013-02-10 18:11:00,49.8,46.1,29.89,SE,130,5.0,7.0,87,0.00,,,0.24,Wunderground v.1.15,2013-02-10 23:11:00,
2013-02-10 18:13:00,49.8,46.1,29.89,SSW,200,6.0,7.0,87,0.00,,,0.24,Wunderground v.1.15,2013-02-10 23:13:00,
2013-02-10 18:14:00,49.8,46.1,29.89,South,184,6.0,7.0,87,0.00,,,0.24,Wunderground v.1.15,2013-02-10 23:14:00,
2013-02-10 18:16:00,49.8,46.1,29.89,SSE,150,5.0,7.0,87,0.00,,,0.24,Wunderground v.1.15,2013-02-10 23:16:00,
2013-02-10 18:18:00,49.8,46.1,29.89,SSW,207,5.0,7.0,87,0.00,,,0.24,Wunderground v.1.15,2013-02-10 23:18:00,
2013-02-10 18:21:00,49.8,46.1,29.90,South,185,5.0,7.0,87,0.00,,,0.24,Wunderground v.1.15,2013-02-10 23:21:00,
2013-02-10 18:24:00,49.8,46.1,29.89,SSW,198,4.0,7.0,87,0.00,,,0.24,Wunderground v.1.15,2013-02-10 23:24:00,
2013-02-10 18:26:00,49.7,46.0,29.89,SSW,198,5.0,8.0,87,0.00,,,0.24,Wunderground v.1.15,2013-02-10 23:26:00,
2013-02-10 18:29:00,49.8,46.1,29.89,South,170,5.0,5.0,87,0.00,,,0.24,Wunderground v.1.15,2013-02-10 23:29:00,
2013-02-10 18:32:00,49.8,46.1,29.89,SSW,198,6.0,7.0,87,0.00,,,0.24,Wunderground v.1.15,2013-02-10 23:32:00,
2013-02-10 18:36:00,49.7,46.0,29.88,South,190,5.0,7.0,87,0.00,,,0.24,Wunderground v.1.15,2013-02-10 23:36:00,
2013-02-10 18:37:00,49.8,46.1,29.88,SSW,193,5.0,7.0,87,0.00,,,0.24,Wunderground v.1.15,2013-02-10 23:37:00,
2013-02-10 18:38:00,49.7,46.0,29.88,SSE,159,5.0,9.0,87,0.00,,,0.24,Wunderground v.1.15,2013-02-10 23:38:00,
2013-02-10 18:44:00,49.7,46.0,29.88,ESE,105,5.0,9.0,87,0.00,,,0.24,Wunderground v.1.15,2013-02-10 23:44:00,
2013-02-10 18:46:00,49.7,46.0,29.88,SSE,165,5.0,9.0,87,0.00,,,0.24,Wunderground v.1.15,2013-02-10 23:46:00,
2013-02-10 18:50:00,49.6,45.9,29.88,SSE,163,5.0,7.0,87,0.00,,,0.24,Wunderground v.1.15,2013-02-10 23:50:00,
2013-02-10 18:51:00,49.6,45.9,29.87,SSW,198,5.0,7.0,87,0.00,,,0.24,Wunderground v.1.15,2013-02-10 23:51:00,
2013-02-10 18:53:00,49.6,45.9,29.87,South,178,5.0,7.0,87,0.00,,,0.24,Wunderground v.1.15,2013-02-10 23:53:00,
2013-02-10 18:54:00,49.6,45.9,29.87,SW,227,5.0,12.0,87,0.00,,,0.24,Wunderground v.1.15,2013-02-10 23:54:00,
2013-02-10 18:58:00,49.7,46.0,29.87,SSW,211,5.0,6.0,87,0.00,,,0.24,Wunderground v.1.15,2013-02-10 23:58:00,
2013-02-10 18:59:00,49.7,46.0,29.87,SSE,157,5.0,6.0,87,0.00,,,0.24,Wunderground v.1.15,2013-02-10 23:59:00,
2013-02-10 19:01:00,49.7,46.0,29.87,SE,146,5.0,6.0,87,0.00,,,0.24,Wunderground v.1.15,2013-02-11 00:01:00,
2013-02-10 19:03:00,49.8,46.1,29.87,SSE,168,5.0,9.0,87,0.00,,,0.24,Wunderground v.1.15,2013-02-11 00:03:00,
2013-02-10 19:06:00,49.7,46.0,29.87,SSE,160,5.0,9.0,87,0.00,,,0.24,Wunderground v.1.15,2013-02-11 00:06:00,
2013-02-10 19:09:00,49.7,46.0,29.87,South,188,5.0,8.0,87,0.00,,,0.24,Wunderground v.1.15,2013-02-11 00:09:00,
2013-02-10 19:10:00,49.8,46.1,29.86,South,177,5.0,8.0,87,0.00,,,0.24,Wunderground v.1.15,2013-02-11 00:10:00,
2013-02-10 19:13:00,49.9,46.2,29.86,South,169,5.0,8.0,87,0.00,,,0.24,Wunderground v.1.15,2013-02-11 00:13:00,
2013-02-10 19:14:00,49.9,46.2,29.87,South,173,5.0,8.0,87,0.00,,,0.24,Wunderground v.1.15,2013-02-11 00:14:00,
2013-02-10 19:17:00,49.9,46.2,29.87,South,182,5.0,8.0,87,0.00,,,0.24,Wunderground v.1.15,2013-02-11 00:17:00,
2013-02-10 19:20:00,49.9,46.2,29.87,South,173,5.0,6.0,87,0.00,,,0.24,Wunderground v.1.15,2013-02-11 00:20:00,
2013-02-10 19:22:00,50.0,46.3,29.87,South,175,5.0,12.0,87,0.00,,,0.24,Wunderground v.1.15,2013-02-11 00:22:00,
2013-02-10 19:25:00,50.1,46.4,29.86,SSW,203,5.0,12.0,87,0.00,,,0.24,Wunderground v.1.15,2013-02-11 00:25:00,
2013-02-10 19:27:00,50.2,46.5,29.86,East,86,5.0,12.0,87,0.00,,,0.24,Wunderground v.1.15,2013-02-11 00:27:00,
2013-02-10 19:29:00,50.2,46.5,29.86,South,189,5.0,5.0,87,0.00,,,0.24,Wunderground v.1.15,2013-02-11 00:29:00,
2013-02-10 19:32:00,50.3,46.6,29.86,SSW,194,5.0,6.0,87,0.00,,,0.24,Wunderground v.1.15,2013-02-11 00:32:00,
2013-02-10 19:35:00,50.3,46.6,29.86,SSW,211,4.0,10.0,87,0.00,,,0.24,Wunderground v.1.15,2013-02-11 00:35:00,
2013-02-10 19:36:00,50.4,46.7,29.86,South,184,4.0,10.0,87,0.00,,,0.24,Wunderground v.1.15,2013-02-11 00:36:00,
2013-02-10 19:41:00,50.6,46.9,29.87,South,188,5.0,7.0,87,0.00,,,0.24,Wunderground v.1.15,2013-02-11 00:41:00,
2013-02-10 19:42:00,50.7,47.0,29.87,South,172,5.0,7.0,87,0.00,,,0.24,Wunderground v.1.15,2013-02-11 00:42:00,
2013-02-10 19:43:00,50.7,47.0,29.86,ESE,115,5.0,7.0,87,0.00,,,0.24,Wunderground v.1.15,2013-02-11 00:43:00,
2013-02-10 19:46:00,50.8,46.8,29.86,South,180,5.0,7.0,86,0.00,,,0.24,Wunderground v.1.15,2013-02-11 00:46:00,
2013-02-10 19:48:00,50.8,47.1,29.86,South,177,5.0,6.0,87,0.00,,,0.24,Wunderground v.1.15,2013-02-11 00:48:00,
2013-02-10 19:52:00,51.0,47.0,29.87,SSW,202,6.0,12.0,86,0.00,,,0.24,Wunderground v.1.15,2013-02-11 00:52:00,
2013-02-10 19:53:00,51.1,47.1,29.87,SSW,205,6.0,12.0,86,0.00,,,0.24,Wunderground v.1.15,2013-02-11 00:53:00,
2013-02-10 19:54:00,51.2,47.2,29.87,South,182,6.0,12.0,86,0.00,,,0.24,Wunderground v.1.15,2013-02-11 00:54:00,
2013-02-10 19:59:00,51.3,47.3,29.87,South,178,6.0,6.0,86,0.00,,,0.24,Wunderground v.1.15,2013-02-11 00:59:00,
2013-02-10 20:00:00,51.3,47.3,29.87,South,178,6.0,6.0,86,0.00,,,0.24,Wunderground v.1.15,2013-02-11 01:00:00,
2013-02-10 20:01:00,51.2,47.2,29.87,SSW,193,5.0,6.0,86,0.00,,,0.24,Wunderground v.1.15,2013-02-11 01:01:00,
2013-02-10 20:03:00,51.3,47.3,29.87,South,170,5.0,6.0,86,0.00,,,0.24,Wunderground v.1.15,2013-02-11 01:03:00,
2013-02-10 20:05:00,51.2,47.2,29.87,South,189,4.0,6.0,86,0.00,,,0.24,Wunderground v.1.15,2013-02-11 01:05:00,
2013-02-10 20:06:00,51.2,47.2,29.87,South,180,4.0,11.0,86,0.00,,,0.24,Wunderground v.1.15,2013-02-11 01:06:00,
2013-02-10 20:11:00,51.2,47.2,29.87,South,186,5.0,6.0,86,0.00,,,0.24,Wunderground v.1.15,2013-02-11 01:11:00,
2013-02-10 20:13:00,51.2,47.2,29.87,SE,126,4.0,6.0,86,0.00,,,0.24,Wunderground v.1.15,2013-02-11 01:13:00,
2013-02-10 20:15:00,51.2,47.2,29.87,South,169,5.0,7.0,86,0.00,,,0.24,Wunderground v.1.15,2013-02-11 01:15:00,
2013-02-10 20:19:00,51.2,47.2,29.87,SW,217,5.0,5.0,86,0.00,,,0.24,Wunderground v.1.15,2013-02-11 01:19:00,
2013-02-10 20:20:00,51.2,47.5,29.87,SSE,150,4.0,5.0,87,0.00,,,0.24,Wunderground v.1.15,2013-02-11 01:20:00,
2013-02-10 20:21:00,51.2,47.5,29.87,SSE,164,4.0,7.0,87,0.00,,,0.24,Wunderground v.1.15,2013-02-11 01:21:00,
2013-02-10 20:25:00,51.3,47.3,29.87,South,190,4.0,7.0,86,0.00,,,0.24,Wunderground v.1.15,2013-02-11 01:25:00,
2013-02-10 20:27:00,51.3,47.6,29.87,SSE,161,4.0,7.0,87,0.00,,,0.24,Wunderground v.1.15,2013-02-11 01:27:00,
2013-02-10 20:30:00,51.3,47.6,29.87,South,172,4.0,5.0,87,0.00,,,0.24,Wunderground v.1.15,2013-02-11 01:30:00,
2013-02-10 20:32:00,51.3,47.6,29.87,SW,217,4.0,5.0,87,0.00,,,0.24,Wunderground v.1.15,2013-02-11 01:32:00,
2013-02-10 20:36:00,51.3,47.6,29.88,SSW,212,3.0,5.0,87,0.00,,,0.24,Wunderground v.1.15,2013-02-11 01:36:00,
2013-02-10 20:37:00,51.3,47.6,29.88,South,186,3.0,5.0,87,0.00,,,0.24,Wunderground v.1.15,2013-02-11 01:37:00,
2013-02-10 20:39:00,51.3,47.6,29.88,South,181,3.0,8.0,87,0.00,,,0.24,Wunderground v.1.15,2013-02-11 01:39:00,
2013-02-10 20:43:00,51.4,47.7,29.88,SSW,192,3.0,8.0,87,0.00,,,0.24,Wunderground v.1.15,2013-02-11 01:43:00,
2013-02-10 20:45:00,51.5,47.5,29.88,South,190,3.0,8.0,86,0.00,,,0.24,Wunderground v.1.15,2013-02-11 01:45:00,
2013-02-10 20:47:00,51.6,47.5,29.88,SSE,148,4.0,8.0,86,0.00,,,0.24,Wunderground v.1.15,2013-02-11 01:47:00,
2013-02-10 20:48:00,51.6,47.5,29.88,South,190,3.0,5.0,86,0.00,,,0.24,Wunderground v.1.15,2013-02-11 01:48:00,
2013-02-10 20:53:00,51.6,47.9,29.88,South,174,4.0,6.0,87,0.00,,,0.24,Wunderground v.1.15,2013-02-11 01:53:00,
2013-02-10 20:54:00,51.7,48.0,29.88,SSW,194,4.0,6.0,87,0.00,,,0.24,Wunderground v.1.15,2013-02-11 01:54:00,
2013-02-10 20:55:00,51.7,47.6,29.88,SW,215,4.0,6.0,86,0.00,,,0.24,Wunderground v.1.15,2013-02-11 01:55:00,
2013-02-10 21:00:00,52.0,47.9,29.88,SSW,200,4.0,5.0,86,0.00,,,0.24,Wunderground v.1.15,2013-02-11 02:00:00,
2013-02-10 21:03:00,52.0,47.9,29.88,South,180,4.0,6.0,86,0.00,,,0.24,Wunderground v.1.15,2013-02-11 02:03:00,
2013-02-10 21:05:00,52.1,48.0,29.88,South,185,5.0,7.0,86,0.00,,,0.24,Wunderground v.1.15,2013-02-11 02:05:00,
2013-02-10 21:09:00,52.2,48.1,29.88,SSE,153,5.0,5.0,86,0.00,,,0.24,Wunderground v.1.15,2013-02-11 02:09:00,
2013-02-10 21:11:00,52.2,48.1,29.88,SSW,205,5.0,5.0,86,0.00,,,0.24,Wunderground v.1.15,2013-02-11 02:11:00,
2013-02-10 21:14:00,52.1,48.0,29.88,South,184,4.0,6.0,86,0.00,,,0.24,Wunderground v.1.15,2013-02-11 02:14:00,
2013-02-10 21:15:00,52.1,48.0,29.88,SSE,162,4.0,6.0,86,0.00,,,0.24,Wunderground v.1.15,2013-02-11 02:15:00,
2013-02-10 21:16:00,52.1,48.0,29.88,South,171,3.0,6.0,86,0.00,,,0.24,Wunderground v.1.15,2013-02-11 02:16:00,
2013-02-10 21:21:00,52.1,48.3,29.88,SSW,206,3.0,6.0,87,0.00,,,0.24,Wunderground v.1.15,2013-02-11 02:21:00,
2013-02-10 21:22:00,52.1,48.3,29.88,SSW,208,3.0,6.0,87,0.00,,,0.24,Wunderground v.1.15,2013-02-11 02:22:00,
2013-02-10 21:26:00,52.1,48.0,29.87,South,182,4.0,6.0,86,0.00,,,0.24,Wunderground v.1.15,2013-02-11 02:26:00,
2013-02-10 21:29:00,52.2,48.1,29.88,SSW,202,5.0,9.0,86,0.00,,,0.24,Wunderground v.1.15,2013-02-11 02:29:00,
2013-02-10 21:31:00,52.2,48.1,29.87,SSE,159,5.0,9.0,86,0.00,,,0.24,Wunderground v.1.15,2013-02-11 02:31:00,
2013-02-10 21:34:00,52.2,48.1,29.87,SSW,205,5.0,9.0,86,0.00,,,0.24,Wunderground v.1.15,2013-02-11 02:34:00,
2013-02-10 21:36:00,52.2,48.4,29.87,SSE,157,4.0,9.0,87,0.00,,,0.24,Wunderground v.1.15,2013-02-11 02:36:00,
2013-02-10 21:41:00,52.4,48.3,29.87,South,190,4.0,9.0,86,0.00,,,0.24,Wunderground v.1.15,2013-02-11 02:41:00,
2013-02-10 21:42:00,52.4,48.6,29.87,South,174,5.0,9.0,87,0.00,,,0.24,Wunderground v.1.15,2013-02-11 02:42:00,
2013-02-10 21:43:00,52.4,48.6,29.87,NNW,327,5.0,9.0,87,0.00,,,0.24,Wunderground v.1.15,2013-02-11 02:43:00,
2013-02-10 21:48:00,52.3,48.5,29.87,SSW,200,5.0,5.0,87,0.00,,,0.24,Wunderground v.1.15,2013-02-11 02:48:00,
2013-02-10 21:51:00,52.3,48.5,29.86,South,187,5.0,7.0,87,0.00,,,0.24,Wunderground v.1.15,2013-02-11 02:51:00,
2013-02-10 21:53:00,52.3,48.9,29.86,SSW,211,4.0,7.0,88,0.00,,,0.24,Wunderground v.1.15,2013-02-11 02:53:00,
2013-02-10 21:56:00,52.2,48.8,29.86,SSW,192,4.0,7.0,88,0.00,,,0.24,Wunderground v.1.15,2013-02-11 02:56:00,
2013-02-10 21:58:00,52.1,48.7,29.86,South,176,3.0,6.0,88,0.00,,,0.24,Wunderground v.1.15,2013-02-11 02:58:00,
2013-02-10 22:00:00,52.1,48.7,29.86,South,175,4.0,6.0,88,0.00,,,0.24,Wunderground v.1.15,2013-02-11 03:00:00,
2013-02-10 22:02:00,52.0,48.9,29.86,SSW,192,3.0,6.0,89,0.00,,,0.24,Wunderground v.1.15,2013-02-11 03:02:00,
2013-02-10 22:06:00,51.9,48.8,29.86,SSE,148,4.0,6.0,89,0.00,,,0.24,Wunderground v.1.15,2013-02-11 03:06:00,
2013-02-10 22:07:00,51.9,48.8,29.86,SSW,195,4.0,6.0,89,0.00,,,0.24,Wunderground v.1.15,2013-02-11 03:07:00,
2013-02-10 22:08:00,51.9,48.8,29.85,South,184,3.0,5.0,89,0.00,,,0.24,Wunderground v.1.15,2013-02-11 03:08:00,
2013-02-10 22:10:00,51.9,48.8,29.86,SSE,163,3.0,7.0,89,0.00,,,0.24,Wunderground v.1.15,2013-02-11 03:10:00,
2013-02-10 22:12:00,51.9,49.1,29.86,SW,215,4.0,7.0,90,0.00,,,0.24,Wunderground v.1.15,2013-02-11 03:12:00,
2013-02-10 22:15:00,51.9,49.1,29.86,South,178,4.0,7.0,90,0.00,,,0.24,Wunderground v.1.15,2013-02-11 03:15:00,
2013-02-10 22:17:00,51.9,49.1,29.86,SSW,200,4.0,7.0,90,0.00,,,0.24,Wunderground v.1.15,2013-02-11 03:17:00,
2013-02-10 22:20:00,52.0,49.2,29.87,SSW,203,4.0,10.0,90,0.00,,,0.24,Wunderground v.1.15,2013-02-11 03:20:00,
2013-02-10 22:22:00,52.0,49.2,29.87,SSW,196,4.0,10.0,90,0.00,,,0.24,Wunderground v.1.15,2013-02-11 03:22:00,
2013-02-10 22:27:00,52.1,49.3,29.87,South,184,4.0,11.0,90,0.00,,,0.24,Wunderground v.1.15,2013-02-11 03:27:00,
2013-02-10 22:28:00,52.1,49.3,29.86,SSW,195,4.0,4.0,90,0.00,,,0.24,Wunderground v.1.15,2013-02-11 03:28:00,
2013-02-10 22:32:00,52.1,49.3,29.87,South,175,4.0,6.0,90,0.00,,,0.24,Wunderground v.1.15,2013-02-11 03:32:00,
2013-02-10 22:35:00,52.1,49.3,29.87,South,190,4.0,7.0,90,0.00,,,0.24,Wunderground v.1.15,2013-02-11 03:35:00,
2013-02-10 22:38:00,52.2,49.4,29.87,SW,229,4.0,4.0,90,0.00,,,0.24,Wunderground v.1.15,2013-02-11 03:38:00,
2013-02-10 22:41:00,52.3,49.5,29.87,South,190,4.0,8.0,90,0.00,,,0.24,Wunderground v.1.15,2013-02-11 03:41:00,
2013-02-10 22:42:00,52.3,49.8,29.87,SSW,207,4.0,8.0,91,0.00,,,0.24,Wunderground v.1.15,2013-02-11 03:42:00,
2013-02-10 22:44:00,52.4,49.8,29.87,WSW,240,5.0,8.0,91,0.00,,,0.24,Wunderground v.1.15,2013-02-11 03:44:00,
2013-02-10 22:48:00,52.4,49.8,29.87,SSW,194,5.0,7.0,91,0.00,,,0.24,Wunderground v.1.15,2013-02-11 03:48:00,
2013-02-10 22:49:00,52.5,49.9,29.87,West,267,5.0,8.0,91,0.00,,,0.24,Wunderground v.1.15,2013-02-11 03:49:00,
2013-02-10 22:53:00,52.4,49.8,29.87,SW,218,5.0,8.0,91,0.00,,,0.24,Wunderground v.1.15,2013-02-11 03:53:00,
2013-02-10 22:54:00,52.4,49.8,29.87,SW,225,5.0,8.0,91,0.00,,,0.24,Wunderground v.1.15,2013-02-11 03:54:00,
2013-02-10 22:55:00,52.4,49.8,29.87,SW,233,5.0,8.0,91,0.00,,,0.24,Wunderground v.1.15,2013-02-11 03:55:00,
2013-02-10 22:56:00,52.4,49.8,29.87,West,275,5.0,8.0,91,0.00,,,0.24,Wunderground v.1.15,2013-02-11 03:56:00,
2013-02-10 23:00:00,52.3,50.0,29.87,SSW,199,5.0,9.0,92,0.00,,,0.24,Wunderground v.1.15,2013-02-11 04:00:00,
2013-02-10 23:02:00,52.2,49.9,29.87,SSW,205,5.0,9.0,92,0.00,,,0.24,Wunderground v.1.15,2013-02-11 04:02:00,
2013-02-10 23:03:00,52.2,49.9,29.87,SSW,195,5.0,9.0,92,0.00,,,0.24,Wunderground v.1.15,2013-02-11 04:03:00,
2013-02-10 23:04:00,52.2,49.9,29.87,SSW,201,5.0,9.0,92,0.00,,,0.24,Wunderground v.1.15,2013-02-11 04:04:00,
2013-02-10 23:07:00,52.2,49.9,29.87,South,191,5.0,9.0,92,0.00,,,0.24,Wunderground v.1.15,2013-02-11 04:07:00,
2013-02-10 23:08:00,52.2,49.9,29.88,SSW,197,5.0,7.0,92,0.00,,,0.24,Wunderground v.1.15,2013-02-11 04:08:00,
2013-02-10 23:13:00,52.2,49.9,29.88,SSW,199,5.0,9.0,92,0.00,,,0.24,Wunderground v.1.15,2013-02-11 04:13:00,
2013-02-10 23:14:00,52.2,49.9,29.88,SSW,203,5.0,9.0,92,0.00,,,0.24,Wunderground v.1.15,2013-02-11 04:14:00,
2013-02-10 23:15:00,52.3,50.0,29.88,WSW,249,5.0,9.0,92,0.00,,,0.24,Wunderground v.1.15,2013-02-11 04:15:00,
2013-02-10 23:19:00,52.2,49.9,29.89,WSW,242,4.0,4.0,92,0.00,,,0.24,Wunderground v.1.15,2013-02-11 04:19:00,
2013-02-10 23:21:00,52.2,49.9,29.88,South,173,4.0,4.0,92,0.00,,,0.24,Wunderground v.1.15,2013-02-11 04:21:00,
2013-02-10 23:23:00,52.2,50.2,29.88,SW,222,4.0,5.0,93,0.00,,,0.24,Wunderground v.1.15,2013-02-11 04:23:00,
2013-02-10 23:24:00,52.2,50.2,29.87,SSW,199,4.0,5.0,93,0.00,,,0.24,Wunderground v.1.15,2013-02-11 04:24:00,
2013-02-10 23:25:00,52.3,50.3,29.87,West,259,4.0,6.0,93,0.00,,,0.24,Wunderground v.1.15,2013-02-11 04:25:00,
2013-02-10 23:27:00,52.4,50.4,29.87,South,189,4.0,4.0,93,0.00,,,0.24,Wunderground v.1.15,2013-02-11 04:27:00,
2013-02-10 23:29:00,52.4,50.4,29.87,SSW,194,4.0,7.0,93,0.00,,,0.24,Wunderground v.1.15,2013-02-11 04:29:00,
2013-02-10 23:30:00,52.4,50.4,29.88,SW,230,4.0,7.0,93,0.00,,,0.24,Wunderground v.1.15,2013-02-11 04:30:00,
2013-02-10 23:34:00,52.5,50.5,29.87,SSW,197,3.0,7.0,93,0.00,,,0.24,Wunderground v.1.15,2013-02-11 04:34:00,
2013-02-10 23:35:00,52.5,50.5,29.87,SSW,197,3.0,7.0,93,0.00,,,0.24,Wunderground v.1.15,2013-02-11 04:35:00,
2013-02-10 23:38:00,52.6,50.6,29.87,SSW,196,3.0,5.0,93,0.00,,,0.24,Wunderground v.1.15,2013-02-11 04:38:00,
2013-02-10 23:41:00,52.6,50.6,29.87,SSW,206,3.0,5.0,93,0.00,,,0.24,Wunderground v.1.15,2013-02-11 04:41:00,
2013-02-10 23:44:00,52.6,50.6,29.87,SW,223,3.0,6.0,93,0.00,,,0.24,Wunderground v.1.15,2013-02-11 04:44:00,
2013-02-10 23:46:00,52.7,50.7,29.87,WSW,238,3.0,6.0,93,0.00,,,0.24,Wunderground v.1.15,2013-02-11 04:46:00,
2013-02-10 23:49:00,52.8,50.8,29.87,SW,232,3.0,6.0,93,0.00,,,0.24,Wunderground v.1.15,2013-02-11 04:49:00,
2013-02-10 23:52:00,52.8,50.8,29.87,South,183,3.0,7.0,93,0.00,,,0.24,Wunderground v.1.15,2013-02-11 04:52:00,
2013-02-10 23:55:00,52.8,50.8,29.86,WSW,244,3.0,7.0,93,0.00,,,0.24,Wunderground v.1.15,2013-02-11 04:55:00,
2013-02-10 23:56:00,52.8,50.8,29.87,SW,216,3.0,7.0,93,0.00,,,0.24,Wunderground v.1.15,2013-02-11 04:56:00,